GFSMW_prec_precacc_180.txt.gz
Total_Precipitation_Accumulation
1.01 1.24 0.89 0.81 0.91 0.85 0.88 0.71 0.61 0.72 0.95 1.11 0.99 0.98 1.26 1.67 1.67 1.16 0.98 0.97 0.90 0.81 0.73 0.54 0.43 0.35 0.25 0.22 0.22 0.25 0.33 0.40 0.46 0.46 0.26 0.18 0.15 0.16 0.17 0.18 0.17 0.16 0.12
0.89 1.29 1.70 0.90 0.88 1.50 1.77 1.37 1.11 1.01 0.94 1.07 1.00 0.90 1.00 1.19 1.54 1.66 1.29 1.34 1.30 1.13 0.85 0.71 0.69 0.58 0.54 0.45 0.50 0.49 0.48 0.46 0.60 0.57 0.37 0.21 0.16 0.18 0.11 0.09 0.11 0.12 0.14
0.60 1.05 1.84 1.39 1.25 1.72 1.87 1.62 1.51 1.54 1.46 1.48 1.88 1.58 1.59 1.45 1.66 2.01 1.70 1.55 1.48 1.43 1.56 1.86 1.55 1.01 1.02 1.15 1.22 1.28 1.27 1.06 0.82 0.73 0.72 0.43 0.22 0.09 0.08 0.07 0.08 0.09 0.10
0.38 0.60 0.95 1.32 1.45 1.02 1.03 1.53 2.55 2.98 2.12 1.91 2.77 3.41 3.11 2.93 2.70 2.91 2.53 1.92 1.69 1.69 1.86 2.15 2.74 3.21 2.75 1.93 1.63 1.54 1.38 1.43 1.29 1.25 0.98 0.83 0.59 0.39 0.16 0.06 0.06 0.06 0.05
0.34 0.35 0.56 0.83 0.79 0.73 0.77 0.94 1.48 2.35 2.43 2.46 2.67 3.17 3.04 2.42 2.15 2.15 2.70 2.69 2.44 2.02 1.86 1.89 1.96 1.98 2.17 2.63 2.40 1.95 1.84 1.71 1.41 1.16 0.94 0.84 0.80 0.81 0.70 0.37 0.19 0.14 0.09
0.16 0.32 0.31 0.46 0.55 0.66 0.78 0.69 1.00 1.46 2.17 2.43 2.42 2.63 2.87 3.14 2.68 2.14 2.27 2.19 1.82 1.80 1.70 1.52 1.38 1.41 1.46 1.56 1.92 1.95 1.68 1.57 1.61 1.53 1.36 1.14 1.08 0.92 1.03 0.94 0.59 0.51 0.37
0.30 0.37 0.59 0.56 0.66 0.78 0.60 0.61 0.89 1.02 1.49 1.68 2.07 2.17 1.76 2.00 2.08 1.88 1.80 1.96 1.93 1.72 1.65 1.53 1.53 1.41 1.42 1.46 1.55 1.71 1.64 1.46 1.31 1.26 1.29 1.40 1.42 1.39 1.42 1.36 1.00 0.68 0.44
0.55 0.51 0.81 1.02 1.05 0.88 0.85 0.56 0.81 0.90 0.87 0.86 0.92 1.30 1.52 1.86 1.78 1.61 1.52 1.47 1.41 1.55 1.87 1.77 1.74 1.78 1.73 1.71 1.72 1.76 1.81 1.71 1.62 1.63 1.56 1.50 1.46 1.59 1.75 1.86 1.86 1.72 1.12
0.91 0.79 0.86 1.20 1.12 0.89 0.99 0.91 0.85 0.94 0.74 0.72 0.42 0.38 0.45 0.54 0.72 0.79 0.82 0.97 1.23 1.18 1.31 1.42 1.33 1.32 1.32 1.29 1.37 1.38 1.37 1.49 1.53 1.42 1.35 1.29 1.17 1.28 1.40 1.57 1.88 2.40 2.23
1.11 0.97 0.90 0.89 0.81 0.71 0.87 0.91 0.75 0.52 0.45 0.53 0.44 0.14 0.12 0.17 0.17 0.17 0.18 0.23 0.40 0.55 0.68 0.79 0.81 0.88 0.93 1.07 1.17 1.21 1.29 1.39 1.40 1.42 1.46 1.47 1.41 1.38 1.31 1.28 1.40 1.59 1.96
0.83 0.73 0.64 0.53 0.45 0.36 0.56 0.79 0.66 0.48 0.33 0.33 0.43 0.17 0.07 0.08 0.09 0.07 0.05 0.05 0.07 0.08 0.10 0.12 0.15 0.17 0.24 0.42 0.63 0.79 0.97 1.17 1.32 1.59 1.84 1.95 2.06 2.26 2.24 2.29 2.45 2.58 2.69
0.51 0.45 0.30 0.23 0.20 0.40 0.65 1.15 0.98 0.55 0.26 0.26 0.35 0.23 0.06 0.04 0.05 0.05 0.07 0.07 0.07 0.05 0.05 0.06 0.06 0.06 0.10 0.13 0.15 0.17 0.22 0.30 0.40 0.55 0.71 0.79 0.95 1.21 1.42 1.66 1.82 2.16 2.62
0.17 0.16 0.18 0.15 0.17 0.45 0.76 1.13 1.03 0.61 0.30 0.34 0.30 0.22 0.12 0.07 0.06 0.06 0.06 0.06 0.06 0.06 0.05 0.04 0.05 0.06 0.05 0.06 0.08 0.11 0.14 0.20 0.29 0.36 0.41 0.44 0.47 0.54 0.58 0.69 0.87 1.03 1.18
0.16 0.14 0.14 0.14 0.26 0.77 0.90 0.78 0.94 0.76 0.49 0.35 0.29 0.18 0.17 0.14 0.08 0.07 0.06 0.05 0.05 0.05 0.04 0.05 0.05 0.07 0.08 0.10 0.11 0.11 0.11 0.10 0.10 0.13 0.15 0.22 0.31 0.43 0.62 0.86 0.96 0.92 0.80
0.13 0.10 0.12 0.19 0.26 0.97 0.78 0.60 0.67 0.88 0.75 0.47 0.34 0.19 0.11 0.13 0.10 0.06 0.07 0.05 0.05 0.04 0.04 0.08 0.14 0.16 0.17 0.20 0.19 0.19 0.20 0.21 0.25 0.26 0.31 0.37 0.49 0.57 0.53 0.45 0.36 0.37 0.41
0.11 0.07 0.12 0.17 0.25 0.58 0.65 0.41 0.46 0.63 0.66 0.42 0.31 0.21 0.08 0.08 0.09 0.09 0.09 0.09 0.09 0.10 0.10 0.13 0.14 0.17 0.21 0.37 0.31 0.25 0.26 0.29 0.31 0.34 0.37 0.41 0.50 0.40 0.39 0.30 0.26 0.22 0.27
0.12 0.09 0.13 0.30 0.16 0.36 0.55 0.82 0.96 0.59 0.37 0.42 0.40 0.25 0.11 0.10 0.12 0.14 0.16 0.14 0.12 0.15 0.24 0.25 0.20 0.16 0.15 0.29 0.24 0.22 0.20 0.23 0.25 0.25 0.23 0.20 0.19 0.17 0.13 0.19 0.21 0.25 0.23
0.09 0.21 0.33 0.36 0.21 0.39 0.85 0.86 1.01 0.53 0.31 0.39 0.59 0.58 0.47 0.39 0.39 0.41 0.40 0.32 0.30 0.29 0.25 0.27 0.37 0.45 0.54 0.51 0.36 0.28 0.20 0.19 0.17 0.15 0.13 0.09 0.04 0.03 0.03 0.05 0.11 0.08 0.11
0.24 0.21 0.25 0.35 0.30 0.39 0.54 0.51 0.65 0.70 0.75 0.92 0.89 0.82 0.66 0.62 0.87 1.01 0.86 0.75 0.73 0.68 0.77 0.64 0.55 0.66 0.74 0.61 0.47 0.30 0.22 0.18 0.13 0.07 0.02 0.02 0.01 0.03 0.04 0.05 0.03 0.01 0.01
0.17 0.26 0.45 0.53 0.47 0.40 0.46 0.84 1.25 1.02 0.94 0.92 1.01 0.89 0.78 0.64 0.75 0.70 0.76 0.71 0.63 0.68 0.66 0.70 0.57 0.52 0.48 0.35 0.27 0.20 0.13 0.07 0.03 0.02 0.02 0.03 0.02 0.03 0.08 0.10 0.06 0.08 0.02
0.28 0.25 0.30 0.45 0.44 0.51 0.87 1.13 1.22 1.10 1.03 0.98 0.81 0.66 0.55 0.71 0.67 0.69 0.53 0.61 0.53 0.41 0.37 0.33 0.30 0.21 0.12 0.05 0.03 0.04 0.04 0.03 0.04 0.02 0.01 0.01 0.03 0.09 0.13 0.14 0.09 0.13 0.12
0.27 0.12 0.29 0.76 0.89 0.69 0.71 0.63 0.63 0.55 0.30 0.38 0.34 0.37 0.26 0.32 0.42 0.27 0.25 0.23 0.19 0.13 0.07 0.03 0.02 0.01 0.01 0.03 0.05 0.05 0.05 0.04 0.03 0.03 0.02 0.02 0.08 0.12 0.11 0.12 0.11 0.15 0.17
0.21 0.08 0.11 0.14 0.17 0.16 0.09 0.09 0.09 0.07 0.01 0.00 0.00 0.00 0.00 0.00 0.01 0.00 0.00 0.00 0.00 0.00 0.00 0.00 0.00 0.00 0.00 0.01 0.06 0.05 0.05 0.09 0.08 0.04 0.06 0.10 0.11 0.11 0.08 0.08 0.11 0.11 0.09
0.05 0.04 0.04 0.02 0.02 0.01 0.01 0.00 0.00 0.00 0.00 0.00 0.00 0.00 0.00 0.00 0.00 0.00 0.00 0.00 0.00 0.01 0.02 0.02 0.03 0.03 0.04 0.05 0.05 0.08 0.09 0.11 0.10 0.07 0.10 0.14 0.13 0.12 0.10 0.11 0.11 0.09 0.10
0.04 0.07 0.10 0.09 0.05 0.01 0.01 0.01 0.01 0.02 0.03 0.02 0.02 0.01 0.01 0.01 0.01 0.01 0.02 0.01 0.01 0.03 0.02 0.01 0.03 0.05 0.06 0.07 0.18 0.21 0.19 0.21 0.28 0.39 0.25 0.18 0.12 0.10 0.11 0.11 0.12 0.19 0.26
0.00 0.01 0.06 0.12 0.19 0.19 0.17 0.12 0.08 0.07 0.05 0.05 0.03 0.04 0.02 0.02 0.03 0.04 0.04 0.07 0.05 0.06 0.06 0.06 0.05 0.04 0.07 0.11 0.18 0.21 0.24 0.29 0.40 0.46 0.29 0.17 0.13 0.12 0.13 0.18 0.23 0.28 0.36

GFSMW_prec_precacc_183.txt.gz
Total_Precipitation_Accumulation
1.01 1.24 0.89 0.81 0.91 0.85 0.88 0.71 0.61 0.72 0.95 1.11 0.99 0.98 1.26 1.71 1.88 1.42 1.18 1.10 0.92 0.81 0.73 0.54 0.43 0.35 0.25 0.22 0.22 0.25 0.33 0.40 0.46 0.46 0.26 0.18 0.15 0.16 0.17 0.18 0.17 0.16 0.12
0.89 1.29 1.70 0.90 0.88 1.50 1.77 1.37 1.11 1.01 0.94 1.07 1.00 0.90 1.00 1.20 1.63 1.89 1.49 1.43 1.34 1.13 0.85 0.71 0.69 0.58 0.54 0.45 0.50 0.49 0.48 0.46 0.60 0.57 0.37 0.21 0.16 0.18 0.11 0.09 0.11 0.12 0.14
0.60 1.05 1.84 1.39 1.25 1.72 1.87 1.62 1.51 1.54 1.46 1.48 1.88 1.58 1.60 1.47 1.70 2.10 1.90 1.77 1.52 1.43 1.56 1.86 1.55 1.01 1.02 1.15 1.22 1.28 1.27 1.06 0.82 0.73 0.72 0.43 0.22 0.09 0.08 0.07 0.08 0.09 0.10
0.38 0.60 0.95 1.32 1.45 1.02 1.03 1.53 2.55 2.98 2.12 1.91 2.77 3.41 3.11 2.94 2.71 2.93 2.66 2.08 1.81 1.70 1.86 2.15 2.74 3.21 2.75 1.93 1.63 1.54 1.38 1.43 1.29 1.25 0.98 0.83 0.59 0.39 0.16 0.06 0.06 0.06 0.05
0.34 0.35 0.56 0.83 0.79 0.73 0.77 0.94 1.48 2.35 2.43 2.47 2.68 3.17 3.04 2.43 2.15 2.20 2.76 2.79 2.49 2.03 1.86 1.89 1.96 1.98 2.17 2.63 2.40 1.95 1.84 1.71 1.41 1.16 0.94 0.84 0.80 0.81 0.70 0.37 0.19 0.14 0.09
0.16 0.32 0.31 0.46 0.55 0.66 0.78 0.69 1.00 1.46 2.17 2.43 2.42 2.63 2.87 3.14 2.69 2.19 2.38 2.23 1.84 1.80 1.70 1.52 1.38 1.41 1.46 1.56 1.92 1.95 1.68 1.57 1.61 1.53 1.36 1.14 1.08 0.92 1.03 0.94 0.59 0.51 0.37
0.30 0.37 0.59 0.56 0.66 0.78 0.60 0.61 0.89 1.03 1.49 1.68 2.07 2.18 1.76 2.01 2.11 1.96 1.92 2.02 1.94 1.72 1.65 1.53 1.53 1.41 1.42 1.46 1.55 1.71 1.64 1.46 1.31 1.26 1.29 1.40 1.42 1.39 1.42 1.36 1.00 0.68 0.44
0.55 0.51 0.81 1.02 1.05 0.88 0.85 0.56 0.82 0.90 0.88 0.88 0.93 1.31 1.54 1.90 1.85 1.67 1.57 1.52 1.42 1.55 1.87 1.77 1.74 1.78 1.73 1.71 1.72 1.76 1.81 1.71 1.62 1.63 1.56 1.50 1.46 1.59 1.75 1.86 1.86 1.72 1.12
0.91 0.79 0.86 1.20 1.12 0.89 0.99 0.92 0.86 0.95 0.75 0.75 0.45 0.40 0.48 0.62 0.80 0.87 0.85 0.98 1.24 1.19 1.31 1.42 1.33 1.32 1.32 1.29 1.37 1.38 1.37 1.49 1.53 1.42 1.35 1.29 1.17 1.28 1.40 1.57 1.88 2.40 2.23
1.11 0.97 0.90 0.91 0.85 0.72 0.87 0.93 0.77 0.55 0.49 0.57 0.49 0.16 0.18 0.24 0.30 0.26 0.21 0.23 0.41 0.55 0.68 0.79 0.81 0.88 0.93 1.07 1.17 1.21 1.29 1.39 1.40 1.42 1.46 1.47 1.41 1.38 1.31 1.28 1.40 1.59 1.96
0.84 0.75 0.67 0.58 0.53 0.40 0.58 0.80 0.67 0.52 0.43 0.45 0.51 0.23 0.17 0.18 0.17 0.16 0.07 0.05 0.07 0.08 0.10 0.12 0.15 0.17 0.24 0.42 0.63 0.79 0.97 1.17 1.32 1.59 1.84 1.95 2.06 2.26 2.24 2.29 2.45 2.58 2.69
0.56 0.51 0.47 0.31 0.27 0.44 0.67 1.17 1.03 0.68 0.42 0.42 0.42 0.34 0.15 0.14 0.15 0.14 0.09 0.07 0.07 0.05 0.05 0.06 0.06 0.06 0.10 0.13 0.15 0.17 0.22 0.30 0.40 0.55 0.71 0.79 0.95 1.21 1.42 1.66 1.82 2.16 2.62
0.22 0.25 0.32 0.38 0.18 0.46 0.77 1.19 1.12 0.73 0.46 0.49 0.40 0.38 0.22 0.13 0.14 0.14 0.08 0.07 0.06 0.06 0.05 0.04 0.05 0.06 0.05 0.06 0.08 0.11 0.14 0.20 0.29 0.36 0.41 0.44 0.47 0.54 0.58 0.69 0.87 1.03 1.18
0.22 0.25 0.16 0.15 0.27 0.77 0.92 0.86 1.08 0.90 0.65 0.49 0.42 0.36 0.30 0.17 0.11 0.10 0.07 0.06 0.05 0.05 0.04 0.05 0.05 0.07 0.08 0.10 0.11 0.11 0.11 0.10 0.10 0.13 0.15 0.22 0.31 0.43 0.62 0.86 0.96 0.92 0.80
0.15 0.14 0.13 0.21 0.28 0.98 0.81 0.76 0.84 1.08 0.88 0.62 0.57 0.40 0.20 0.15 0.10 0.07 0.07 0.06 0.05 0.04 0.04 0.08 0.14 0.16 0.17 0.20 0.19 0.19 0.20 0.21 0.25 0.26 0.31 0.37 0.49 0.57 0.53 0.45 0.36 0.37 0.41
0.12 0.09 0.14 0.20 0.28 0.61 0.72 0.51 0.65 0.97 0.91 0.62 0.57 0.40 0.14 0.08 0.09 0.09 0.09 0.09 0.09 0.10 0.10 0.13 0.14 0.17 0.21 0.37 0.31 0.25 0.26 0.29 0.31 0.34 0.37 0.41 0.50 0.40 0.39 0.30 0.26 0.22 0.27
0.12 0.09 0.16 0.42 0.23 0.39 0.66 0.90 1.06 0.82 0.70 0.66 0.61 0.45 0.20 0.13 0.12 0.14 0.16 0.14 0.12 0.15 0.24 0.25 0.20 0.16 0.15 0.29 0.24 0.22 0.20 0.23 0.25 0.25 0.23 0.20 0.19 0.17 0.13 0.19 0.21 0.25 0.23
0.11 0.36 0.49 0.43 0.27 0.54 1.08 0.92 1.08 0.60 0.50 0.54 0.74 0.74 0.58 0.43 0.40 0.41 0.40 0.32 0.30 0.29 0.25 0.27 0.37 0.45 0.54 0.51 0.36 0.28 0.20 0.19 0.17 0.15 0.13 0.09 0.04 0.03 0.03 0.05 0.11 0.08 0.11
0.40 0.38 0.42 0.49 0.42 0.50 0.67 0.58 0.70 0.73 0.78 0.99 1.00 0.92 0.71 0.64 0.88 1.01 0.86 0.75 0.73 0.68 0.77 0.64 0.55 0.66 0.74 0.61 0.47 0.30 0.22 0.18 0.13 0.07 0.02 0.02 0.01 0.03 0.04 0.05 0.03 0.01 0.01
0.39 0.48 0.61 0.64 0.54 0.49 0.56 0.91 1.30 1.08 1.03 0.98 1.07 0.95 0.79 0.64 0.75 0.70 0.76 0.71 0.63 0.68 0.66 0.70 0.57 0.52 0.48 0.35 0.27 0.20 0.13 0.07 0.03 0.02 0.02 0.03 0.02 0.03 0.08 0.10 0.06 0.08 0.02
0.38 0.38 0.41 0.54 0.55 0.61 0.99 1.28 1.33 1.20 1.11 1.05 0.85 0.68 0.55 0.71 0.67 0.69 0.53 0.61 0.53 0.41 0.37 0.33 0.30 0.21 0.12 0.05 0.03 0.04 0.04 0.03 0.04 0.02 0.01 0.01 0.03 0.09 0.13 0.14 0.09 0.13 0.12
0.28 0.16 0.33 0.79 0.93 0.75 0.81 0.75 0.73 0.62 0.37 0.43 0.36 0.37 0.26 0.32 0.42 0.27 0.25 0.23 0.19 0.13 0.07 0.03 0.02 0.01 0.01 0.03 0.05 0.05 0.05 0.04 0.03 0.03 0.02 0.02 0.08 0.12 0.11 0.12 0.11 0.15 0.17
0.21 0.09 0.11 0.15 0.19 0.19 0.14 0.14 0.14 0.12 0.05 0.02 0.00 0.00 0.00 0.00 0.01 0.00 0.00 0.00 0.00 0.00 0.00 0.00 0.00 0.00 0.00 0.01 0.06 0.05 0.05 0.09 0.08 0.04 0.06 0.10 0.11 0.11 0.08 0.08 0.11 0.11 0.09
0.06 0.05 0.06 0.05 0.05 0.04 0.04 0.02 0.01 0.01 0.01 0.00 0.00 0.00 0.00 0.00 0.00 0.00 0.00 0.00 0.00 0.01 0.02 0.02 0.03 0.03 0.04 0.05 0.05 0.08 0.09 0.11 0.10 0.07 0.10 0.14 0.13 0.12 0.10 0.11 0.11 0.09 0.10
0.04 0.08 0.11 0.11 0.06 0.02 0.02 0.02 0.01 0.02 0.03 0.02 0.02 0.01 0.01 0.01 0.01 0.01 0.02 0.01 0.01 0.03 0.02 0.01 0.03 0.05 0.06 0.07 0.18 0.21 0.19 0.21 0.28 0.39 0.25 0.18 0.12 0.10 0.11 0.11 0.12 0.19 0.26
0.00 0.02 0.06 0.13 0.19 0.20 0.17 0.12 0.08 0.07 0.05 0.05 0.03 0.04 0.02 0.02 0.03 0.04 0.04 0.07 0.05 0.06 0.06 0.06 0.05 0.04 0.07 0.11 0.18 0.21 0.24 0.29 0.40 0.46 0.29 0.17 0.13 0.12 0.13 0.18 0.23 0.28 0.36

GFSMW_prec_precacc_186.txt.gz
Total_Precipitation_Accumulation
1.01 1.24 0.89 0.81 0.91 0.85 0.88 0.71 0.61 0.72 0.95 1.11 0.99 0.99 1.26 1.71 1.88 1.42 1.19 1.13 1.06 0.98 0.76 0.54 0.43 0.35 0.25 0.22 0.22 0.25 0.33 0.40 0.46 0.46 0.26 0.18 0.15 0.16 0.17 0.18 0.17 0.16 0.12
0.89 1.29 1.70 0.90 0.88 1.50 1.77 1.37 1.11 1.01 0.94 1.07 1.00 0.90 1.00 1.20 1.63 1.89 1.49 1.43 1.38 1.27 0.98 0.73 0.69 0.58 0.54 0.45 0.50 0.49 0.48 0.46 0.60 0.57 0.37 0.21 0.16 0.18 0.11 0.09 0.11 0.12 0.14
0.60 1.05 1.84 1.39 1.25 1.72 1.87 1.62 1.51 1.54 1.46 1.48 1.88 1.58 1.60 1.47 1.70 2.10 1.90 1.77 1.54 1.46 1.63 1.91 1.56 1.01 1.02 1.15 1.22 1.28 1.27 1.06 0.82 0.73 0.72 0.43 0.22 0.09 0.08 0.07 0.08 0.09 0.10
0.38 0.60 0.95 1.32 1.45 1.02 1.03 1.53 2.55 2.98 2.12 1.91 2.77 3.41 3.11 2.94 2.71 2.93 2.66 2.09 1.82 1.71 1.87 2.18 2.75 3.21 2.75 1.93 1.63 1.54 1.38 1.43 1.29 1.25 0.98 0.83 0.59 0.39 0.16 0.06 0.06 0.06 0.05
0.34 0.35 0.56 0.83 0.79 0.73 0.77 0.94 1.48 2.35 2.43 2.47 2.68 3.18 3.05 2.43 2.15 2.20 2.77 2.80 2.53 2.07 1.87 1.90 1.97 1.98 2.17 2.63 2.40 1.95 1.84 1.71 1.41 1.16 0.94 0.84 0.80 0.81 0.70 0.37 0.19 0.14 0.09
0.16 0.32 0.31 0.46 0.55 0.66 0.78 0.69 1.00 1.46 2.17 2.43 2.43 2.64 2.87 3.14 2.69 2.19 2.39 2.25 1.87 1.82 1.71 1.52 1.38 1.41 1.46 1.56 1.92 1.95 1.68 1.57 1.61 1.53 1.36 1.14 1.08 0.92 1.03 0.94 0.59 0.51 0.37
0.30 0.37 0.59 0.56 0.66 0.78 0.60 0.61 0.89 1.03 1.50 1.68 2.08 2.18 1.76 2.01 2.11 1.96 1.92 2.03 1.97 1.73 1.65 1.53 1.53 1.41 1.42 1.46 1.55 1.71 1.64 1.46 1.31 1.26 1.29 1.40 1.42 1.39 1.42 1.36 1.00 0.68 0.44
0.55 0.51 0.81 1.02 1.05 0.88 0.85 0.56 0.82 0.91 0.89 0.89 0.94 1.32 1.54 1.90 1.85 1.67 1.57 1.53 1.43 1.55 1.87 1.77 1.74 1.78 1.73 1.71 1.72 1.76 1.81 1.71 1.62 1.63 1.56 1.50 1.46 1.59 1.75 1.86 1.86 1.72 1.12
0.91 0.79 0.86 1.20 1.12 0.89 0.99 0.92 0.87 0.97 0.77 0.78 0.47 0.41 0.48 0.63 0.81 0.88 0.87 0.99 1.26 1.20 1.31 1.42 1.33 1.32 1.32 1.29 1.37 1.38 1.37 1.49 1.53 1.42 1.35 1.29 1.17 1.28 1.40 1.57 1.88 2.40 2.23
1.11 0.97 0.90 0.92 0.86 0.72 0.88 0.93 0.79 0.58 0.51 0.58 0.51 0.17 0.18 0.25 0.33 0.27 0.25 0.26 0.41 0.57 0.68 0.79 0.81 0.88 0.93 1.07 1.17 1.21 1.29 1.39 1.40 1.42 1.46 1.47 1.41 1.38 1.31 1.28 1.40 1.59 1.96
0.84 0.76 0.69 0.62 0.56 0.41 0.59 0.83 0.70 0.55 0.45 0.46 0.52 0.25 0.18 0.19 0.21 0.20 0.09 0.10 0.08 0.08 0.10 0.12 0.15 0.17 0.24 0.42 0.63 0.79 0.97 1.17 1.32 1.59 1.84 1.95 2.06 2.26 2.24 2.29 2.45 2.58 2.69
0.56 0.54 0.55 0.50 0.30 0.45 0.69 1.20 1.06 0.71 0.45 0.45 0.44 0.36 0.19 0.21 0.18 0.19 0.12 0.10 0.09 0.05 0.05 0.06 0.06 0.06 0.10 0.13 0.15 0.17 0.22 0.30 0.40 0.55 0.71 0.79 0.95 1.21 1.42 1.66 1.82 2.16 2.62
0.23 0.30 0.44 0.73 0.23 0.47 0.78 1.20 1.13 0.74 0.50 0.53 0.44 0.43 0.29 0.28 0.21 0.20 0.12 0.09 0.07 0.06 0.05 0.04 0.05 0.06 0.05 0.06 0.08 0.11 0.14 0.20 0.29 0.36 0.41 0.44 0.47 0.54 0.58 0.69 0.87 1.03 1.18
0.23 0.27 0.17 0.16 0.29 0.79 0.93 0.87 1.09 0.97 0.79 0.64 0.59 0.44 0.43 0.35 0.25 0.22 0.12 0.08 0.06 0.05 0.04 0.05 0.05 0.07 0.08 0.10 0.11 0.11 0.11 0.10 0.10 0.13 0.15 0.22 0.31 0.43 0.62 0.86 0.96 0.92 0.80
0.15 0.14 0.13 0.21 0.30 1.02 0.89 0.97 1.00 1.25 1.09 0.84 0.75 0.57 0.37 0.33 0.26 0.20 0.11 0.07 0.05 0.04 0.04 0.08 0.14 0.16 0.17 0.20 0.19 0.19 0.20 0.21 0.25 0.26 0.31 0.37 0.49 0.57 0.53 0.45 0.36 0.37 0.41
0.13 0.10 0.14 0.20 0.30 0.66 0.81 0.68 1.01 1.30 1.01 0.88 0.77 0.65 0.34 0.27 0.27 0.18 0.10 0.09 0.09 0.10 0.10 0.13 0.14 0.17 0.21 0.37 0.31 0.25 0.26 0.29 0.31 0.34 0.37 0.41 0.50 0.40 0.39 0.30 0.26 0.22 0.27
0.13 0.10 0.17 0.51 0.26 0.48 0.77 0.99 1.27 1.15 1.04 0.96 0.85 0.64 0.33 0.23 0.21 0.16 0.16 0.14 0.12 0.15 0.24 0.25 0.20 0.16 0.15 0.29 0.24 0.22 0.20 0.23 0.25 0.25 0.23 0.20 0.19 0.17 0.13 0.19 0.21 0.25 0.23
0.12 0.36 0.50 0.45 0.29 0.68 1.20 1.05 1.30 0.82 0.77 0.84 0.94 0.91 0.68 0.49 0.42 0.41 0.40 0.32 0.30 0.29 0.25 0.27 0.37 0.45 0.54 0.51 0.36 0.28 0.20 0.19 0.17 0.15 0.13 0.09 0.04 0.03 0.03 0.05 0.11 0.08 0.11
0.45 0.42 0.48 0.57 0.49 0.58 0.76 0.69 0.79 0.87 0.96 1.18 1.16 1.08 0.83 0.69 0.88 1.01 0.86 0.75 0.73 0.68 0.77 0.64 0.55 0.66 0.74 0.61 0.47 0.30 0.22 0.18 0.13 0.07 0.02 0.02 0.01 0.03 0.04 0.05 0.03 0.01 0.01
0.46 0.58 0.70 0.73 0.60 0.55 0.63 1.01 1.43 1.24 1.21 1.15 1.21 1.08 0.93 0.68 0.75 0.70 0.76 0.71 0.63 0.68 0.66 0.70 0.57 0.52 0.48 0.35 0.27 0.20 0.13 0.07 0.03 0.02 0.02 0.03 0.02 0.03 0.08 0.10 0.06 0.08 0.02
0.41 0.41 0.47 0.60 0.60 0.66 1.08 1.39 1.43 1.31 1.25 1.18 0.98 0.82 0.66 0.74 0.67 0.69 0.53 0.61 0.53 0.41 0.37 0.33 0.30 0.21 0.12 0.05 0.03 0.04 0.04 0.03 0.04 0.02 0.01 0.01 0.03 0.09 0.13 0.14 0.09 0.13 0.12
0.29 0.17 0.37 0.86 1.01 0.80 0.88 0.84 0.81 0.70 0.45 0.52 0.43 0.45 0.29 0.33 0.42 0.27 0.25 0.23 0.19 0.13 0.07 0.03 0.02 0.01 0.01 0.03 0.05 0.05 0.05 0.04 0.03 0.03 0.02 0.02 0.08 0.12 0.11 0.12 0.11 0.15 0.17
0.22 0.10 0.12 0.16 0.23 0.25 0.17 0.16 0.18 0.17 0.11 0.06 0.02 0.01 0.00 0.00 0.01 0.00 0.00 0.00 0.00 0.00 0.00 0.00 0.00 0.00 0.00 0.01 0.06 0.05 0.05 0.09 0.08 0.04 0.06 0.10 0.11 0.11 0.08 0.08 0.11 0.11 0.09
0.06 0.06 0.06 0.05 0.07 0.06 0.09 0.07 0.04 0.05 0.03 0.02 0.00 0.00 0.00 0.00 0.00 0.00 0.00 0.00 0.00 0.01 0.02 0.02 0.03 0.03 0.04 0.05 0.05 0.08 0.09 0.11 0.10 0.07 0.10 0.14 0.13 0.12 0.10 0.11 0.11 0.09 0.10
0.04 0.08 0.11 0.11 0.06 0.03 0.04 0.06 0.05 0.04 0.04 0.03 0.02 0.01 0.01 0.01 0.01 0.01 0.02 0.01 0.01 0.03 0.02 0.01 0.03 0.05 0.06 0.07 0.18 0.21 0.19 0.21 0.28 0.39 0.25 0.18 0.12 0.10 0.11 0.11 0.12 0.19 0.26
0.00 0.02 0.07 0.14 0.20 0.20 0.18 0.13 0.09 0.07 0.05 0.05 0.03 0.04 0.02 0.02 0.03 0.04 0.04 0.07 0.05 0.06 0.06 0.06 0.05 0.04 0.07 0.11 0.18 0.21 0.24 0.29 0.40 0.46 0.29 0.17 0.13 0.12 0.13 0.18 0.23 0.28 0.36

GFSMW_prec_precacc_189.txt.gz
Total_Precipitation_Accumulation
1.01 1.24 0.89 0.81 0.91 0.85 0.88 0.71 0.61 0.72 0.95 1.11 0.99 0.99 1.26 1.71 1.88 1.42 1.19 1.13 1.06 1.07 0.97 0.78 0.62 0.39 0.25 0.22 0.22 0.25 0.33 0.40 0.46 0.46 0.26 0.18 0.15 0.16 0.17 0.18 0.17 0.16 0.12
0.89 1.29 1.70 0.90 0.88 1.50 1.77 1.37 1.11 1.01 0.94 1.07 1.00 0.90 1.00 1.20 1.63 1.89 1.49 1.43 1.38 1.29 1.04 0.85 0.82 0.68 0.56 0.45 0.50 0.49 0.48 0.46 0.60 0.57 0.37 0.21 0.16 0.18 0.11 0.09 0.11 0.12 0.14
0.60 1.05 1.84 1.39 1.25 1.72 1.87 1.62 1.51 1.54 1.46 1.48 1.88 1.58 1.60 1.47 1.70 2.10 1.90 1.77 1.54 1.46 1.64 1.93 1.61 1.07 1.04 1.15 1.22 1.28 1.27 1.06 0.82 0.73 0.72 0.43 0.22 0.09 0.08 0.07 0.08 0.09 0.10
0.38 0.60 0.95 1.32 1.45 1.02 1.03 1.53 2.55 2.98 2.12 1.91 2.77 3.41 3.11 2.94 2.71 2.93 2.66 2.09 1.82 1.71 1.87 2.18 2.76 3.23 2.78 1.94 1.63 1.54 1.38 1.43 1.29 1.25 0.98 0.83 0.59 0.39 0.16 0.06 0.06 0.06 0.05
0.34 0.35 0.56 0.83 0.79 0.73 0.77 0.94 1.48 2.35 2.43 2.47 2.68 3.18 3.05 2.43 2.15 2.20 2.77 2.80 2.53 2.07 1.87 1.90 1.97 1.98 2.18 2.64 2.40 1.95 1.84 1.71 1.41 1.16 0.94 0.84 0.80 0.81 0.70 0.37 0.19 0.14 0.09
0.16 0.32 0.31 0.46 0.55 0.66 0.78 0.69 1.00 1.46 2.17 2.43 2.43 2.64 2.87 3.14 2.69 2.19 2.39 2.25 1.87 1.82 1.71 1.52 1.38 1.41 1.46 1.56 1.92 1.95 1.68 1.57 1.61 1.53 1.36 1.14 1.08 0.92 1.03 0.94 0.59 0.51 0.37
0.30 0.37 0.59 0.56 0.66 0.78 0.60 0.61 0.89 1.03 1.50 1.69 2.08 2.19 1.76 2.01 2.11 1.96 1.92 2.03 1.97 1.73 1.65 1.53 1.53 1.41 1.42 1.46 1.55 1.71 1.64 1.46 1.31 1.26 1.29 1.40 1.42 1.39 1.42 1.36 1.00 0.68 0.44
0.55 0.51 0.81 1.02 1.05 0.88 0.85 0.56 0.82 0.91 0.89 0.91 0.96 1.34 1.55 1.91 1.85 1.67 1.57 1.53 1.43 1.55 1.87 1.77 1.74 1.78 1.73 1.71 1.72 1.76 1.81 1.71 1.62 1.63 1.56 1.50 1.46 1.59 1.75 1.86 1.86 1.72 1.12
0.91 0.79 0.86 1.20 1.12 0.89 0.99 0.92 0.87 0.97 0.78 0.81 0.51 0.46 0.50 0.63 0.81 0.88 0.87 0.99 1.26 1.20 1.32 1.42 1.33 1.32 1.32 1.29 1.37 1.38 1.37 1.49 1.53 1.42 1.35 1.29 1.17 1.28 1.40 1.57 1.88 2.40 2.23
1.11 0.97 0.90 0.92 0.86 0.72 0.88 0.94 0.79 0.58 0.53 0.62 0.55 0.21 0.21 0.25 0.34 0.27 0.25 0.26 0.42 0.57 0.69 0.80 0.83 0.88 0.93 1.07 1.17 1.21 1.29 1.39 1.40 1.42 1.46 1.47 1.41 1.38 1.31 1.28 1.40 1.59 1.96
0.84 0.76 0.69 0.63 0.58 0.42 0.60 0.84 0.71 0.56 0.47 0.49 0.54 0.27 0.20 0.19 0.23 0.20 0.09 0.10 0.08 0.09 0.14 0.13 0.16 0.17 0.24 0.42 0.63 0.79 0.97 1.17 1.32 1.59 1.84 1.95 2.06 2.26 2.24 2.29 2.45 2.58 2.69
0.56 0.54 0.56 0.53 0.33 0.46 0.71 1.21 1.09 0.74 0.47 0.47 0.46 0.38 0.21 0.21 0.19 0.21 0.12 0.11 0.10 0.06 0.09 0.09 0.06 0.06 0.10 0.13 0.15 0.17 0.22 0.30 0.40 0.55 0.71 0.79 0.95 1.21 1.42 1.66 1.82 2.16 2.62
0.23 0.31 0.45 0.76 0.26 0.49 0.78 1.21 1.14 0.76 0.52 0.56 0.47 0.45 0.31 0.29 0.21 0.23 0.15 0.11 0.11 0.08 0.08 0.08 0.07 0.06 0.05 0.06 0.08 0.11 0.14 0.20 0.29 0.36 0.41 0.44 0.47 0.54 0.58 0.69 0.87 1.03 1.18
0.23 0.27 0.17 0.16 0.29 0.79 0.94 0.88 1.12 1.00 0.80 0.66 0.60 0.47 0.46 0.36 0.29 0.24 0.16 0.11 0.09 0.08 0.06 0.08 0.05 0.07 0.08 0.10 0.11 0.11 0.11 0.10 0.10 0.13 0.15 0.22 0.31 0.43 0.62 0.86 0.96 0.92 0.80
0.15 0.14 0.14 0.21 0.30 1.02 0.91 1.04 1.09 1.35 1.14 0.93 0.84 0.67 0.44 0.36 0.33 0.27 0.18 0.14 0.09 0.06 0.05 0.09 0.14 0.16 0.17 0.20 0.19 0.19 0.20 0.21 0.25 0.26 0.31 0.37 0.49 0.57 0.53 0.45 0.36 0.37 0.41
0.13 0.10 0.15 0.21 0.30 0.68 0.86 0.84 1.33 1.61 1.27 1.06 0.92 0.80 0.43 0.35 0.34 0.33 0.19 0.14 0.13 0.12 0.11 0.13 0.14 0.17 0.21 0.37 0.31 0.25 0.26 0.29 0.31 0.34 0.37 0.41 0.50 0.40 0.39 0.30 0.26 0.22 0.27
0.13 0.10 0.17 0.52 0.27 0.50 0.84 1.08 1.38 1.39 1.34 1.27 1.10 0.88 0.50 0.41 0.38 0.31 0.24 0.17 0.14 0.15 0.24 0.25 0.20 0.16 0.15 0.29 0.24 0.22 0.20 0.23 0.25 0.25 0.23 0.20 0.19 0.17 0.13 0.19 0.21 0.25 0.23
0.12 0.37 0.52 0.46 0.31 0.70 1.25 1.14 1.44 1.04 1.05 1.22 1.21 1.14 0.87 0.72 0.62 0.51 0.45 0.33 0.30 0.29 0.25 0.27 0.37 0.45 0.54 0.51 0.36 0.28 0.20 0.19 0.17 0.15 0.13 0.09 0.04 0.03 0.03 0.05 0.11 0.08 0.11
0.45 0.44 0.51 0.58 0.50 0.60 0.81 0.77 0.93 1.05 1.14 1.40 1.35 1.25 0.99 0.87 1.01 1.07 0.88 0.75 0.73 0.69 0.77 0.64 0.55 0.66 0.74 0.61 0.47 0.30 0.22 0.18 0.13 0.07 0.02 0.02 0.01 0.03 0.04 0.05 0.03 0.01 0.01
0.48 0.62 0.75 0.77 0.62 0.57 0.70 1.12 1.57 1.36 1.31 1.25 1.30 1.18 1.04 0.79 0.82 0.72 0.77 0.72 0.63 0.68 0.66 0.70 0.57 0.52 0.48 0.35 0.27 0.20 0.13 0.07 0.03 0.02 0.02 0.03 0.02 0.03 0.08 0.10 0.06 0.08 0.02
0.42 0.44 0.54 0.63 0.62 0.69 1.15 1.48 1.51 1.37 1.32 1.27 1.06 0.89 0.72 0.78 0.70 0.70 0.53 0.61 0.53 0.41 0.37 0.33 0.30 0.21 0.12 0.05 0.03 0.04 0.04 0.03 0.04 0.02 0.01 0.01 0.03 0.09 0.13 0.14 0.09 0.13 0.12
0.29 0.19 0.40 0.89 1.04 0.83 0.92 0.89 0.86 0.77 0.53 0.61 0.53 0.53 0.32 0.33 0.42 0.27 0.26 0.24 0.20 0.13 0.07 0.03 0.02 0.01 0.01 0.03 0.05 0.05 0.05 0.04 0.03 0.03 0.02 0.02 0.08 0.12 0.11 0.12 0.11 0.15 0.17
0.22 0.10 0.12 0.18 0.26 0.30 0.22 0.21 0.24 0.24 0.17 0.13 0.10 0.05 0.01 0.00 0.01 0.00 0.00 0.00 0.00 0.00 0.00 0.00 0.00 0.00 0.00 0.01 0.06 0.05 0.05 0.09 0.08 0.04 0.06 0.10 0.11 0.11 0.08 0.08 0.11 0.11 0.09
0.06 0.06 0.06 0.06 0.09 0.09 0.12 0.12 0.07 0.09 0.07 0.04 0.03 0.01 0.00 0.00 0.00 0.00 0.00 0.00 0.00 0.01 0.02 0.02 0.03 0.03 0.04 0.05 0.05 0.08 0.09 0.11 0.10 0.07 0.10 0.14 0.13 0.12 0.10 0.11 0.11 0.09 0.10
0.04 0.08 0.11 0.11 0.07 0.04 0.05 0.09 0.08 0.07 0.06 0.03 0.02 0.01 0.01 0.01 0.01 0.01 0.02 0.01 0.01 0.03 0.02 0.01 0.03 0.05 0.06 0.07 0.18 0.21 0.19 0.21 0.28 0.39 0.25 0.18 0.12 0.10 0.11 0.11 0.12 0.19 0.26
0.00 0.02 0.07 0.14 0.20 0.20 0.19 0.16 0.12 0.09 0.06 0.05 0.03 0.04 0.03 0.02 0.03 0.04 0.04 0.07 0.05 0.06 0.06 0.06 0.05 0.04 0.07 0.11 0.18 0.21 0.24 0.29 0.40 0.46 0.29 0.17 0.13 0.12 0.13 0.18 0.23 0.28 0.36

GFSMW_prec_precacc_192.txt.gz
Total_Precipitation_Accumulation
1.01 1.24 0.89 0.81 0.91 0.85 0.88 0.71 0.61 0.72 0.95 1.11 0.99 0.99 1.26 1.71 1.88 1.42 1.19 1.13 1.06 1.07 0.99 0.82 0.68 0.49 0.32 0.23 0.22 0.25 0.33 0.40 0.46 0.46 0.26 0.18 0.15 0.16 0.17 0.18 0.17 0.16 0.12
0.89 1.29 1.70 0.90 0.88 1.50 1.77 1.37 1.11 1.01 0.94 1.07 1.00 0.90 1.00 1.20 1.63 1.89 1.49 1.43 1.38 1.29 1.04 0.87 0.87 0.74 0.64 0.52 0.52 0.49 0.48 0.46 0.60 0.57 0.37 0.21 0.16 0.18 0.11 0.09 0.11 0.12 0.14
0.60 1.05 1.84 1.39 1.25 1.72 1.87 1.62 1.51 1.54 1.46 1.48 1.88 1.58 1.60 1.48 1.70 2.11 1.90 1.77 1.54 1.46 1.64 1.93 1.61 1.10 1.12 1.22 1.26 1.30 1.28 1.06 0.82 0.73 0.72 0.43 0.22 0.09 0.08 0.07 0.08 0.09 0.10
0.38 0.60 0.95 1.32 1.45 1.02 1.03 1.53 2.55 2.98 2.12 1.91 2.77 3.41 3.11 2.94 2.71 2.93 2.66 2.09 1.82 1.72 1.87 2.19 2.77 3.23 2.78 1.96 1.66 1.54 1.38 1.43 1.29 1.25 0.98 0.83 0.59 0.39 0.16 0.06 0.06 0.06 0.05
0.34 0.35 0.56 0.83 0.79 0.73 0.77 0.94 1.48 2.35 2.43 2.47 2.68 3.18 3.05 2.43 2.15 2.20 2.77 2.80 2.53 2.07 1.88 1.90 1.97 1.98 2.18 2.64 2.41 1.95 1.84 1.71 1.41 1.16 0.94 0.84 0.80 0.81 0.70 0.37 0.19 0.14 0.09
0.16 0.32 0.31 0.46 0.55 0.66 0.78 0.69 1.00 1.46 2.17 2.43 2.43 2.64 2.87 3.14 2.69 2.19 2.39 2.25 1.87 1.82 1.71 1.52 1.38 1.41 1.46 1.56 1.92 1.95 1.68 1.57 1.61 1.53 1.36 1.14 1.08 0.92 1.03 0.94 0.59 0.51 0.37
0.30 0.37 0.59 0.56 0.66 0.78 0.60 0.61 0.89 1.03 1.50 1.69 2.08 2.19 1.77 2.02 2.11 1.96 1.92 2.03 1.97 1.73 1.65 1.54 1.53 1.41 1.42 1.46 1.55 1.71 1.64 1.46 1.31 1.26 1.29 1.40 1.42 1.39 1.42 1.36 1.00 0.68 0.44
0.55 0.51 0.81 1.02 1.05 0.88 0.85 0.56 0.82 0.91 0.89 0.91 0.96 1.34 1.57 1.92 1.85 1.67 1.57 1.53 1.43 1.55 1.88 1.77 1.74 1.78 1.73 1.71 1.72 1.76 1.81 1.71 1.62 1.63 1.56 1.50 1.46 1.59 1.75 1.86 1.86 1.72 1.12
0.91 0.79 0.86 1.20 1.12 0.89 0.99 0.92 0.87 0.97 0.79 0.81 0.52 0.47 0.56 0.67 0.82 0.88 0.87 0.99 1.26 1.20 1.32 1.43 1.33 1.32 1.32 1.29 1.37 1.38 1.37 1.49 1.53 1.42 1.35 1.29 1.17 1.28 1.40 1.57 1.88 2.40 2.23
1.11 0.97 0.90 0.92 0.86 0.72 0.88 0.94 0.79 0.59 0.53 0.62 0.56 0.24 0.27 0.29 0.35 0.27 0.25 0.26 0.42 0.57 0.69 0.80 0.83 0.88 0.93 1.07 1.17 1.21 1.29 1.39 1.40 1.42 1.46 1.47 1.41 1.38 1.31 1.28 1.40 1.59 1.96
0.84 0.76 0.69 0.63 0.58 0.42 0.60 0.84 0.71 0.57 0.48 0.54 0.67 0.38 0.28 0.26 0.27 0.21 0.09 0.10 0.08 0.10 0.14 0.14 0.16 0.20 0.26 0.42 0.63 0.79 0.97 1.17 1.32 1.59 1.84 1.95 2.06 2.26 2.24 2.29 2.45 2.58 2.69
0.56 0.54 0.56 0.53 0.34 0.47 0.71 1.22 1.09 0.75 0.48 0.49 0.54 0.61 0.37 0.33 0.22 0.23 0.13 0.11 0.11 0.09 0.12 0.10 0.07 0.08 0.11 0.14 0.15 0.17 0.22 0.30 0.40 0.55 0.71 0.79 0.95 1.21 1.42 1.66 1.82 2.16 2.62
0.23 0.31 0.45 0.76 0.26 0.49 0.79 1.22 1.14 0.76 0.52 0.57 0.49 0.52 0.40 0.34 0.23 0.24 0.15 0.11 0.13 0.10 0.13 0.10 0.08 0.06 0.06 0.06 0.08 0.11 0.14 0.20 0.29 0.36 0.41 0.44 0.47 0.54 0.58 0.69 0.87 1.03 1.18
0.23 0.27 0.17 0.17 0.29 0.79 0.94 0.94 1.22 1.02 0.81 0.67 0.60 0.51 0.50 0.40 0.31 0.24 0.17 0.12 0.12 0.12 0.10 0.15 0.10 0.07 0.08 0.10 0.11 0.11 0.11 0.10 0.10 0.13 0.15 0.22 0.31 0.43 0.62 0.86 0.96 0.92 0.80
0.15 0.14 0.14 0.21 0.30 1.02 0.93 1.17 1.23 1.48 1.21 0.95 0.85 0.68 0.47 0.38 0.35 0.28 0.19 0.16 0.12 0.12 0.08 0.17 0.21 0.17 0.17 0.20 0.19 0.19 0.20 0.21 0.25 0.26 0.31 0.37 0.49 0.57 0.53 0.45 0.36 0.37 0.41
0.13 0.10 0.15 0.21 0.30 0.68 0.88 0.89 1.38 1.80 1.53 1.16 0.97 0.81 0.45 0.38 0.36 0.39 0.20 0.15 0.16 0.16 0.15 0.16 0.17 0.18 0.21 0.37 0.31 0.25 0.26 0.29 0.31 0.34 0.37 0.41 0.50 0.40 0.39 0.30 0.26 0.22 0.27
0.13 0.10 0.17 0.54 0.29 0.50 0.85 1.08 1.39 1.43 1.52 1.53 1.30 0.95 0.53 0.44 0.39 0.35 0.27 0.18 0.16 0.22 0.26 0.28 0.20 0.16 0.15 0.29 0.24 0.22 0.20 0.23 0.25 0.25 0.23 0.20 0.19 0.17 0.13 0.19 0.21 0.25 0.23
0.14 0.37 0.53 0.50 0.32 0.71 1.25 1.14 1.47 1.10 1.13 1.52 1.47 1.31 0.96 0.78 0.68 0.57 0.51 0.35 0.32 0.31 0.26 0.28 0.37 0.45 0.54 0.51 0.36 0.29 0.21 0.19 0.17 0.15 0.13 0.09 0.04 0.03 0.03 0.05 0.11 0.08 0.11
0.49 0.47 0.57 0.61 0.52 0.61 0.84 0.82 0.97 1.14 1.26 1.50 1.52 1.47 1.17 0.99 1.13 1.19 0.96 0.80 0.74 0.69 0.77 0.64 0.55 0.66 0.75 0.62 0.47 0.31 0.22 0.18 0.13 0.07 0.02 0.02 0.01 0.03 0.04 0.05 0.03 0.01 0.01
0.50 0.69 0.86 0.82 0.64 0.60 0.74 1.15 1.60 1.41 1.37 1.30 1.36 1.28 1.21 0.94 0.94 0.80 0.81 0.74 0.64 0.68 0.66 0.71 0.58 0.53 0.48 0.36 0.27 0.21 0.13 0.07 0.03 0.02 0.02 0.03 0.02 0.03 0.08 0.10 0.06 0.08 0.02
0.43 0.47 0.61 0.69 0.66 0.72 1.17 1.49 1.52 1.41 1.36 1.31 1.10 0.98 0.85 0.90 0.77 0.73 0.54 0.62 0.54 0.42 0.38 0.35 0.31 0.21 0.13 0.05 0.04 0.04 0.04 0.03 0.04 0.02 0.01 0.01 0.03 0.09 0.13 0.14 0.09 0.13 0.12
0.30 0.20 0.44 0.93 1.08 0.87 0.94 0.89 0.88 0.80 0.57 0.65 0.57 0.56 0.37 0.37 0.44 0.27 0.26 0.24 0.20 0.15 0.08 0.04 0.03 0.02 0.02 0.04 0.05 0.05 0.05 0.04 0.03 0.03 0.02 0.02 0.08 0.12 0.11 0.12 0.11 0.15 0.17
0.22 0.10 0.13 0.19 0.29 0.32 0.23 0.22 0.28 0.29 0.21 0.17 0.13 0.07 0.01 0.00 0.01 0.01 0.01 0.01 0.01 0.01 0.00 0.00 0.01 0.01 0.01 0.01 0.06 0.05 0.05 0.09 0.08 0.04 0.06 0.10 0.11 0.11 0.08 0.08 0.11 0.11 0.09
0.06 0.06 0.07 0.07 0.13 0.14 0.15 0.17 0.11 0.12 0.09 0.07 0.06 0.02 0.01 0.01 0.00 0.00 0.00 0.00 0.01 0.02 0.02 0.02 0.03 0.03 0.04 0.05 0.05 0.08 0.09 0.11 0.10 0.07 0.10 0.14 0.13 0.12 0.10 0.11 0.11 0.09 0.10
0.04 0.08 0.11 0.12 0.08 0.04 0.06 0.10 0.09 0.09 0.08 0.06 0.03 0.02 0.01 0.01 0.01 0.01 0.02 0.01 0.01 0.03 0.02 0.01 0.03 0.05 0.06 0.07 0.18 0.21 0.19 0.21 0.28 0.39 0.25 0.18 0.12 0.10 0.11 0.11 0.12 0.19 0.26
0.01 0.02 0.07 0.14 0.20 0.20 0.20 0.17 0.13 0.09 0.07 0.05 0.04 0.04 0.03 0.02 0.03 0.04 0.04 0.07 0.05 0.06 0.06 0.06 0.05 0.04 0.07 0.11 0.18 0.21 0.24 0.29 0.40 0.46 0.29 0.17 0.13 0.12 0.13 0.18 0.23 0.28 0.36

GFSMW_prec_precacc_195.txt.gz
Total_Precipitation_Accumulation
1.01 1.24 0.89 0.81 0.91 0.85 0.88 0.71 0.61 0.72 0.95 1.11 0.99 0.99 1.26 1.72 1.88 1.42 1.19 1.13 1.06 1.07 0.99 0.82 0.69 0.51 0.33 0.25 0.24 0.27 0.33 0.40 0.46 0.46 0.26 0.18 0.15 0.16 0.17 0.18 0.17 0.16 0.12
0.89 1.29 1.70 0.90 0.88 1.50 1.77 1.37 1.11 1.01 0.94 1.07 1.00 0.90 1.00 1.20 1.63 1.90 1.49 1.43 1.38 1.29 1.04 0.87 0.87 0.74 0.66 0.59 0.58 0.51 0.50 0.46 0.60 0.57 0.37 0.21 0.16 0.18 0.11 0.09 0.11 0.12 0.14
0.60 1.05 1.84 1.39 1.25 1.72 1.87 1.62 1.51 1.54 1.46 1.48 1.88 1.58 1.60 1.48 1.70 2.11 1.91 1.77 1.54 1.46 1.64 1.94 1.62 1.10 1.12 1.23 1.27 1.33 1.29 1.06 0.82 0.73 0.72 0.43 0.22 0.09 0.08 0.07 0.08 0.09 0.10
0.38 0.60 0.95 1.32 1.45 1.02 1.03 1.53 2.55 2.98 2.12 1.91 2.77 3.41 3.11 2.94 2.71 2.93 2.66 2.10 1.82 1.72 1.87 2.19 2.77 3.23 2.78 1.96 1.66 1.54 1.39 1.44 1.29 1.25 0.98 0.83 0.59 0.39 0.16 0.06 0.06 0.06 0.05
0.34 0.35 0.56 0.83 0.79 0.73 0.77 0.94 1.48 2.35 2.43 2.47 2.68 3.18 3.05 2.43 2.15 2.20 2.78 2.81 2.53 2.07 1.88 1.90 1.97 1.98 2.18 2.64 2.41 1.95 1.84 1.71 1.41 1.17 0.94 0.84 0.80 0.81 0.70 0.37 0.19 0.14 0.09
0.16 0.32 0.31 0.46 0.55 0.66 0.78 0.69 1.00 1.46 2.17 2.43 2.43 2.64 2.87 3.14 2.69 2.19 2.39 2.26 1.87 1.82 1.71 1.53 1.40 1.41 1.46 1.56 1.92 1.95 1.68 1.57 1.61 1.53 1.36 1.14 1.08 0.92 1.03 0.94 0.59 0.51 0.37
0.30 0.37 0.59 0.56 0.66 0.78 0.60 0.61 0.89 1.03 1.50 1.69 2.08 2.19 1.77 2.02 2.11 1.96 1.92 2.03 1.97 1.73 1.65 1.54 1.55 1.43 1.43 1.47 1.56 1.71 1.64 1.46 1.31 1.26 1.29 1.40 1.42 1.39 1.42 1.36 1.00 0.68 0.44
0.55 0.51 0.81 1.02 1.05 0.88 0.85 0.56 0.82 0.91 0.89 0.91 0.96 1.34 1.57 1.93 1.86 1.67 1.57 1.53 1.43 1.55 1.88 1.77 1.74 1.79 1.73 1.72 1.72 1.76 1.81 1.71 1.62 1.63 1.56 1.50 1.46 1.59 1.75 1.86 1.86 1.72 1.12
0.91 0.79 0.86 1.20 1.12 0.89 0.99 0.92 0.88 0.97 0.79 0.81 0.52 0.47 0.56 0.70 0.84 0.89 0.88 0.99 1.26 1.20 1.32 1.43 1.33 1.32 1.33 1.30 1.37 1.38 1.37 1.49 1.53 1.42 1.35 1.29 1.17 1.28 1.40 1.57 1.88 2.40 2.23
1.11 0.97 0.90 0.92 0.86 0.72 0.88 0.94 0.79 0.59 0.53 0.62 0.56 0.24 0.28 0.31 0.38 0.29 0.25 0.26 0.42 0.57 0.69 0.80 0.83 0.88 0.93 1.08 1.18 1.21 1.29 1.39 1.40 1.42 1.46 1.47 1.41 1.38 1.31 1.28 1.40 1.59 1.96
0.84 0.76 0.69 0.63 0.58 0.42 0.60 0.84 0.71 0.58 0.48 0.54 0.71 0.42 0.30 0.28 0.33 0.27 0.10 0.10 0.08 0.11 0.15 0.14 0.17 0.21 0.26 0.42 0.63 0.79 0.98 1.17 1.32 1.59 1.84 1.95 2.06 2.26 2.24 2.29 2.45 2.58 2.69
0.56 0.54 0.56 0.53 0.34 0.47 0.71 1.22 1.09 0.75 0.49 0.49 0.57 0.72 0.53 0.40 0.36 0.34 0.16 0.12 0.11 0.09 0.13 0.11 0.07 0.08 0.12 0.14 0.15 0.17 0.22 0.30 0.40 0.55 0.71 0.79 0.95 1.21 1.42 1.66 1.82 2.16 2.62
0.23 0.31 0.45 0.76 0.26 0.49 0.79 1.22 1.15 0.77 0.53 0.57 0.51 0.66 0.82 0.56 0.45 0.30 0.18 0.12 0.13 0.10 0.14 0.13 0.09 0.07 0.07 0.07 0.09 0.11 0.14 0.20 0.29 0.36 0.41 0.44 0.47 0.54 0.58 0.69 0.87 1.03 1.18
0.24 0.27 0.17 0.17 0.29 0.79 0.94 0.95 1.26 1.08 0.83 0.68 0.61 0.55 0.79 0.72 0.53 0.30 0.22 0.16 0.13 0.13 0.11 0.19 0.13 0.09 0.08 0.10 0.12 0.11 0.11 0.10 0.10 0.13 0.15 0.22 0.31 0.43 0.62 0.86 0.96 0.92 0.80
0.15 0.14 0.14 0.22 0.30 1.02 0.93 1.19 1.24 1.53 1.33 0.97 0.86 0.68 0.49 0.58 0.43 0.30 0.28 0.25 0.18 0.14 0.09 0.20 0.23 0.19 0.17 0.20 0.19 0.19 0.20 0.21 0.25 0.26 0.31 0.37 0.49 0.57 0.53 0.45 0.36 0.37 0.41
0.13 0.10 0.16 0.22 0.30 0.68 0.88 0.89 1.38 1.81 1.58 1.25 0.98 0.82 0.46 0.39 0.39 0.39 0.25 0.18 0.20 0.18 0.16 0.17 0.19 0.20 0.22 0.37 0.31 0.25 0.26 0.29 0.31 0.34 0.37 0.41 0.50 0.40 0.39 0.30 0.26 0.22 0.27
0.13 0.12 0.20 0.57 0.30 0.50 0.85 1.08 1.39 1.46 1.54 1.59 1.37 0.97 0.55 0.48 0.42 0.36 0.28 0.18 0.17 0.22 0.27 0.28 0.21 0.17 0.16 0.29 0.24 0.22 0.20 0.23 0.25 0.25 0.23 0.20 0.19 0.17 0.13 0.19 0.21 0.25 0.23
0.15 0.40 0.58 0.58 0.37 0.72 1.25 1.15 1.48 1.11 1.16 1.56 1.54 1.36 0.99 0.81 0.69 0.59 0.52 0.37 0.34 0.33 0.27 0.30 0.38 0.45 0.54 0.51 0.36 0.29 0.21 0.19 0.17 0.15 0.13 0.09 0.04 0.03 0.03 0.05 0.11 0.08 0.11
0.49 0.49 0.64 0.72 0.57 0.63 0.86 0.83 0.97 1.17 1.34 1.59 1.66 1.57 1.24 1.06 1.14 1.21 0.99 0.82 0.77 0.71 0.78 0.65 0.56 0.66 0.75 0.62 0.48 0.31 0.23 0.18 0.13 0.07 0.03 0.02 0.01 0.03 0.04 0.05 0.03 0.01 0.01
0.50 0.70 0.91 0.91 0.69 0.63 0.77 1.16 1.61 1.42 1.38 1.32 1.38 1.35 1.30 1.01 0.99 0.87 0.92 0.79 0.67 0.69 0.67 0.71 0.58 0.53 0.49 0.36 0.28 0.21 0.14 0.08 0.04 0.03 0.02 0.03 0.02 0.04 0.08 0.10 0.06 0.08 0.02
0.43 0.47 0.65 0.76 0.71 0.76 1.18 1.49 1.52 1.41 1.37 1.33 1.13 1.02 0.91 0.96 0.82 0.78 0.61 0.65 0.55 0.42 0.38 0.35 0.31 0.22 0.13 0.06 0.05 0.05 0.05 0.04 0.04 0.03 0.01 0.01 0.03 0.09 0.13 0.14 0.09 0.13 0.12
0.30 0.20 0.47 0.96 1.11 0.89 0.94 0.89 0.88 0.81 0.58 0.67 0.61 0.61 0.42 0.41 0.47 0.29 0.30 0.25 0.20 0.15 0.09 0.05 0.04 0.03 0.03 0.05 0.06 0.07 0.06 0.05 0.03 0.03 0.02 0.02 0.08 0.12 0.11 0.12 0.11 0.15 0.17
0.22 0.10 0.16 0.20 0.32 0.36 0.24 0.23 0.29 0.30 0.22 0.17 0.14 0.09 0.04 0.03 0.03 0.01 0.01 0.01 0.01 0.01 0.02 0.01 0.01 0.02 0.02 0.02 0.07 0.05 0.05 0.09 0.08 0.04 0.06 0.10 0.11 0.11 0.08 0.08 0.11 0.11 0.09
0.06 0.06 0.08 0.11 0.18 0.19 0.21 0.20 0.11 0.12 0.10 0.08 0.07 0.04 0.02 0.01 0.01 0.00 0.00 0.00 0.01 0.02 0.02 0.03 0.04 0.04 0.05 0.05 0.05 0.08 0.09 0.11 0.10 0.07 0.10 0.14 0.13 0.12 0.10 0.11 0.11 0.09 0.10
0.05 0.08 0.11 0.12 0.10 0.06 0.09 0.14 0.13 0.10 0.08 0.07 0.04 0.03 0.01 0.01 0.02 0.01 0.02 0.01 0.01 0.03 0.02 0.01 0.03 0.05 0.06 0.07 0.18 0.21 0.19 0.21 0.28 0.39 0.25 0.18 0.12 0.10 0.11 0.11 0.12 0.19 0.26
0.03 0.02 0.07 0.14 0.21 0.22 0.22 0.19 0.15 0.13 0.10 0.07 0.04 0.04 0.03 0.02 0.03 0.04 0.05 0.07 0.06 0.06 0.06 0.06 0.05 0.04 0.07 0.11 0.18 0.21 0.24 0.29 0.40 0.46 0.29 0.17 0.13 0.12 0.13 0.18 0.23 0.28 0.36

GFSMW_prec_precacc_198.txt.gz
Total_Precipitation_Accumulation
1.01 1.24 0.89 0.81 0.91 0.85 0.88 0.71 0.61 0.72 0.95 1.11 0.99 0.99 1.26 1.72 1.88 1.43 1.19 1.13 1.06 1.07 0.99 0.82 0.69 0.51 0.34 0.25 0.25 0.28 0.36 0.44 0.48 0.46 0.26 0.18 0.15 0.16 0.17 0.18 0.17 0.16 0.12
0.89 1.29 1.70 0.90 0.88 1.50 1.77 1.37 1.11 1.01 0.94 1.07 1.00 0.90 1.00 1.20 1.63 1.90 1.50 1.43 1.38 1.29 1.04 0.87 0.87 0.74 0.66 0.59 0.58 0.51 0.50 0.47 0.62 0.58 0.38 0.21 0.16 0.18 0.11 0.09 0.11 0.12 0.14
0.60 1.05 1.84 1.39 1.25 1.72 1.87 1.62 1.51 1.54 1.46 1.48 1.88 1.58 1.60 1.48 1.70 2.11 1.91 1.78 1.54 1.46 1.64 1.94 1.62 1.10 1.12 1.23 1.27 1.33 1.30 1.07 0.83 0.73 0.72 0.43 0.22 0.09 0.08 0.07 0.08 0.09 0.10
0.38 0.60 0.95 1.32 1.45 1.02 1.03 1.53 2.55 2.98 2.12 1.91 2.77 3.41 3.11 2.94 2.71 2.93 2.66 2.10 1.82 1.72 1.87 2.19 2.77 3.23 2.78 1.96 1.66 1.55 1.39 1.44 1.30 1.25 0.98 0.83 0.59 0.39 0.16 0.06 0.06 0.06 0.05
0.34 0.35 0.56 0.83 0.79 0.73 0.77 0.94 1.48 2.35 2.43 2.47 2.68 3.18 3.05 2.43 2.15 2.20 2.78 2.81 2.53 2.08 1.88 1.90 1.98 1.99 2.18 2.64 2.41 1.95 1.84 1.71 1.41 1.17 0.94 0.84 0.80 0.81 0.70 0.37 0.19 0.14 0.09
0.16 0.32 0.31 0.46 0.55 0.66 0.78 0.69 1.00 1.46 2.17 2.43 2.43 2.64 2.87 3.14 2.69 2.19 2.40 2.26 1.88 1.83 1.71 1.53 1.41 1.42 1.46 1.56 1.93 1.95 1.68 1.57 1.61 1.53 1.36 1.14 1.08 0.92 1.03 0.94 0.59 0.51 0.37
0.30 0.37 0.59 0.56 0.66 0.78 0.60 0.61 0.89 1.03 1.50 1.69 2.08 2.19 1.77 2.02 2.11 1.97 1.93 2.03 1.98 1.74 1.65 1.54 1.55 1.43 1.43 1.47 1.56 1.71 1.65 1.46 1.31 1.26 1.29 1.40 1.42 1.39 1.42 1.36 1.00 0.68 0.44
0.55 0.51 0.81 1.02 1.05 0.88 0.85 0.56 0.82 0.91 0.90 0.91 0.96 1.34 1.57 1.93 1.87 1.68 1.58 1.54 1.43 1.55 1.88 1.77 1.74 1.79 1.75 1.72 1.73 1.78 1.82 1.72 1.62 1.63 1.56 1.50 1.46 1.59 1.75 1.86 1.86 1.72 1.12
0.91 0.79 0.86 1.20 1.12 0.89 0.99 0.92 0.88 0.97 0.79 0.82 0.52 0.47 0.56 0.70 0.84 0.90 0.89 1.00 1.26 1.20 1.32 1.43 1.33 1.32 1.33 1.31 1.39 1.39 1.38 1.50 1.54 1.42 1.35 1.29 1.17 1.28 1.40 1.57 1.88 2.40 2.23
1.11 0.97 0.90 0.92 0.86 0.72 0.88 0.94 0.80 0.60 0.54 0.63 0.57 0.24 0.28 0.31 0.38 0.30 0.27 0.27 0.42 0.58 0.69 0.80 0.83 0.88 0.93 1.10 1.21 1.22 1.29 1.39 1.41 1.42 1.46 1.47 1.41 1.38 1.31 1.28 1.40 1.59 1.96
0.84 0.76 0.69 0.63 0.58 0.42 0.60 0.84 0.72 0.59 0.49 0.54 0.71 0.44 0.34 0.31 0.34 0.28 0.13 0.11 0.09 0.11 0.15 0.14 0.17 0.21 0.26 0.43 0.65 0.81 0.98 1.17 1.32 1.59 1.84 1.95 2.06 2.26 2.24 2.29 2.45 2.58 2.69
0.56 0.54 0.56 0.53 0.34 0.47 0.71 1.22 1.09 0.76 0.50 0.50 0.57 0.73 0.56 0.46 0.39 0.37 0.19 0.14 0.12 0.10 0.13 0.11 0.07 0.09 0.12 0.16 0.16 0.19 0.23 0.30 0.40 0.55 0.71 0.79 0.95 1.21 1.42 1.66 1.82 2.16 2.62
0.23 0.31 0.45 0.76 0.26 0.49 0.79 1.22 1.15 0.77 0.53 0.58 0.51 0.67 0.88 0.70 0.55 0.38 0.30 0.16 0.14 0.12 0.15 0.13 0.09 0.08 0.09 0.09 0.10 0.11 0.15 0.20 0.29 0.36 0.41 0.44 0.47 0.54 0.58 0.69 0.87 1.03 1.18
0.24 0.27 0.17 0.17 0.29 0.79 0.94 0.95 1.26 1.08 0.84 0.68 0.62 0.55 0.88 0.85 0.71 0.47 0.37 0.25 0.14 0.15 0.12 0.20 0.13 0.09 0.10 0.13 0.13 0.11 0.11 0.10 0.10 0.13 0.15 0.22 0.31 0.43 0.62 0.86 0.96 0.92 0.80
0.15 0.14 0.14 0.22 0.30 1.02 0.94 1.19 1.24 1.53 1.33 0.98 0.87 0.68 0.52 0.76 0.63 0.42 0.38 0.35 0.21 0.19 0.09 0.22 0.24 0.19 0.17 0.21 0.22 0.20 0.20 0.21 0.25 0.26 0.31 0.37 0.49 0.57 0.53 0.45 0.36 0.37 0.41
0.13 0.10 0.17 0.23 0.31 0.69 0.90 0.90 1.38 1.82 1.59 1.30 0.98 0.82 0.48 0.47 0.47 0.45 0.36 0.30 0.28 0.29 0.17 0.19 0.21 0.21 0.22 0.37 0.31 0.25 0.26 0.29 0.31 0.34 0.37 0.41 0.50 0.40 0.39 0.30 0.26 0.22 0.27
0.14 0.12 0.20 0.58 0.32 0.53 0.87 1.10 1.39 1.49 1.59 1.71 1.40 0.98 0.57 0.50 0.45 0.37 0.36 0.25 0.25 0.26 0.29 0.28 0.22 0.18 0.16 0.29 0.24 0.22 0.20 0.23 0.25 0.25 0.23 0.20 0.19 0.17 0.13 0.19 0.21 0.25 0.23
0.15 0.40 0.58 0.60 0.38 0.74 1.27 1.15 1.48 1.14 1.27 1.71 1.60 1.38 1.01 0.84 0.73 0.59 0.53 0.37 0.35 0.33 0.27 0.30 0.38 0.45 0.54 0.51 0.36 0.29 0.21 0.19 0.17 0.15 0.13 0.09 0.04 0.03 0.03 0.05 0.11 0.09 0.11
0.49 0.49 0.64 0.74 0.59 0.64 0.87 0.84 0.98 1.18 1.43 1.74 1.77 1.60 1.25 1.08 1.17 1.21 0.99 0.82 0.77 0.71 0.79 0.65 0.56 0.66 0.75 0.62 0.48 0.31 0.23 0.18 0.14 0.07 0.03 0.02 0.01 0.03 0.05 0.06 0.03 0.01 0.01
0.51 0.70 0.91 0.91 0.70 0.64 0.78 1.16 1.61 1.43 1.41 1.36 1.41 1.39 1.34 1.05 1.00 0.87 0.93 0.80 0.69 0.70 0.68 0.72 0.59 0.54 0.49 0.37 0.28 0.21 0.14 0.08 0.04 0.03 0.02 0.03 0.03 0.05 0.08 0.10 0.06 0.08 0.02
0.43 0.47 0.66 0.76 0.71 0.77 1.19 1.49 1.52 1.41 1.37 1.34 1.14 1.03 0.93 1.01 0.87 0.82 0.66 0.67 0.56 0.43 0.39 0.35 0.32 0.22 0.13 0.06 0.05 0.05 0.05 0.04 0.05 0.03 0.02 0.02 0.04 0.09 0.13 0.14 0.09 0.13 0.12
0.30 0.20 0.47 0.96 1.11 0.89 0.94 0.90 0.88 0.82 0.59 0.68 0.61 0.62 0.44 0.44 0.51 0.32 0.33 0.28 0.22 0.15 0.09 0.05 0.04 0.03 0.03 0.05 0.07 0.07 0.07 0.05 0.04 0.04 0.02 0.02 0.08 0.12 0.11 0.12 0.11 0.15 0.17
0.22 0.10 0.16 0.22 0.35 0.37 0.25 0.23 0.29 0.30 0.23 0.18 0.15 0.09 0.05 0.05 0.06 0.04 0.02 0.02 0.02 0.02 0.02 0.02 0.02 0.02 0.02 0.03 0.08 0.07 0.06 0.09 0.09 0.04 0.06 0.10 0.11 0.11 0.08 0.08 0.11 0.11 0.09
0.06 0.06 0.08 0.11 0.20 0.23 0.24 0.20 0.11 0.12 0.10 0.08 0.07 0.04 0.03 0.04 0.03 0.01 0.00 0.00 0.01 0.02 0.02 0.03 0.04 0.04 0.06 0.06 0.06 0.08 0.09 0.11 0.10 0.07 0.10 0.14 0.13 0.12 0.10 0.11 0.11 0.09 0.10
0.06 0.08 0.11 0.12 0.10 0.07 0.13 0.18 0.14 0.10 0.08 0.07 0.04 0.03 0.02 0.02 0.02 0.01 0.02 0.01 0.01 0.03 0.02 0.02 0.03 0.05 0.06 0.08 0.18 0.21 0.19 0.21 0.28 0.39 0.25 0.18 0.12 0.10 0.11 0.11 0.12 0.19 0.26
0.05 0.02 0.07 0.14 0.22 0.24 0.24 0.21 0.18 0.15 0.12 0.08 0.04 0.04 0.03 0.02 0.03 0.04 0.05 0.07 0.06 0.06 0.06 0.06 0.05 0.04 0.07 0.11 0.18 0.21 0.24 0.29 0.40 0.46 0.29 0.17 0.13 0.12 0.13 0.18 0.23 0.28 0.36

GFSMW_prec_precacc_201.txt.gz
Total_Precipitation_Accumulation
1.01 1.24 0.89 0.81 0.91 0.85 0.88 0.71 0.61 0.72 0.95 1.11 0.99 0.99 1.26 1.72 1.88 1.43 1.19 1.13 1.06 1.07 1.00 0.82 0.69 0.51 0.34 0.25 0.26 0.32 0.49 0.65 0.61 0.54 0.31 0.19 0.15 0.16 0.17 0.18 0.17 0.16 0.12
0.89 1.29 1.70 0.90 0.88 1.50 1.77 1.37 1.11 1.01 0.94 1.07 1.00 0.90 1.00 1.20 1.63 1.90 1.50 1.43 1.38 1.29 1.04 0.87 0.88 0.75 0.67 0.59 0.59 0.51 0.51 0.50 0.65 0.65 0.46 0.30 0.20 0.18 0.11 0.09 0.11 0.12 0.14
0.60 1.05 1.84 1.39 1.25 1.72 1.87 1.62 1.51 1.54 1.46 1.48 1.88 1.58 1.60 1.48 1.70 2.11 1.91 1.78 1.54 1.46 1.65 1.94 1.62 1.10 1.13 1.24 1.28 1.33 1.30 1.07 0.83 0.73 0.74 0.46 0.25 0.11 0.09 0.07 0.08 0.09 0.10
0.38 0.60 0.95 1.32 1.45 1.02 1.03 1.53 2.55 2.98 2.12 1.91 2.77 3.41 3.11 2.94 2.71 2.93 2.66 2.10 1.83 1.72 1.88 2.19 2.77 3.23 2.78 1.96 1.67 1.55 1.40 1.45 1.30 1.25 0.98 0.83 0.60 0.41 0.20 0.08 0.06 0.06 0.05
0.34 0.35 0.56 0.83 0.79 0.73 0.77 0.94 1.48 2.35 2.43 2.47 2.68 3.18 3.05 2.43 2.15 2.20 2.78 2.81 2.54 2.08 1.88 1.91 1.98 1.99 2.18 2.64 2.41 1.96 1.85 1.71 1.42 1.17 0.95 0.84 0.80 0.81 0.71 0.38 0.19 0.14 0.09
0.16 0.32 0.31 0.46 0.55 0.66 0.78 0.69 1.00 1.46 2.17 2.43 2.43 2.64 2.88 3.14 2.69 2.19 2.40 2.27 1.89 1.83 1.72 1.54 1.41 1.42 1.46 1.56 1.93 1.96 1.68 1.58 1.61 1.53 1.36 1.14 1.08 0.92 1.03 0.94 0.59 0.51 0.37
0.30 0.37 0.59 0.56 0.66 0.78 0.60 0.61 0.89 1.03 1.50 1.69 2.08 2.19 1.78 2.03 2.12 1.97 1.93 2.04 2.00 1.75 1.66 1.54 1.55 1.43 1.43 1.47 1.56 1.72 1.65 1.47 1.32 1.26 1.29 1.40 1.42 1.39 1.42 1.36 1.00 0.68 0.44
0.55 0.51 0.81 1.02 1.05 0.88 0.85 0.56 0.82 0.91 0.90 0.91 0.96 1.35 1.58 1.94 1.87 1.68 1.58 1.55 1.45 1.56 1.89 1.79 1.75 1.79 1.75 1.73 1.73 1.78 1.83 1.74 1.65 1.64 1.56 1.50 1.46 1.59 1.75 1.86 1.86 1.72 1.12
0.91 0.79 0.86 1.20 1.12 0.89 0.99 0.92 0.88 0.98 0.80 0.82 0.52 0.47 0.56 0.70 0.84 0.90 0.90 1.02 1.29 1.21 1.33 1.44 1.34 1.32 1.34 1.32 1.39 1.39 1.38 1.51 1.56 1.46 1.37 1.31 1.18 1.28 1.40 1.57 1.88 2.40 2.23
1.11 0.97 0.90 0.92 0.86 0.72 0.88 0.94 0.81 0.61 0.56 0.66 0.59 0.25 0.28 0.32 0.38 0.30 0.28 0.30 0.45 0.59 0.70 0.82 0.85 0.89 0.94 1.10 1.22 1.23 1.29 1.41 1.44 1.47 1.52 1.50 1.42 1.38 1.31 1.28 1.40 1.59 1.96
0.84 0.76 0.69 0.63 0.58 0.42 0.60 0.85 0.73 0.60 0.51 0.56 0.72 0.45 0.34 0.31 0.34 0.28 0.13 0.14 0.12 0.13 0.16 0.15 0.19 0.23 0.27 0.43 0.66 0.84 1.00 1.18 1.35 1.62 1.90 1.99 2.09 2.26 2.24 2.29 2.45 2.58 2.69
0.56 0.54 0.56 0.53 0.34 0.47 0.71 1.22 1.10 0.76 0.50 0.51 0.58 0.73 0.56 0.46 0.41 0.39 0.21 0.17 0.18 0.13 0.15 0.13 0.11 0.11 0.14 0.16 0.18 0.23 0.27 0.34 0.42 0.58 0.75 0.82 0.96 1.21 1.42 1.66 1.82 2.16 2.62
0.23 0.31 0.45 0.76 0.26 0.49 0.79 1.22 1.15 0.77 0.53 0.58 0.52 0.67 0.89 0.71 0.62 0.44 0.35 0.24 0.27 0.19 0.18 0.15 0.11 0.10 0.10 0.09 0.12 0.14 0.19 0.24 0.31 0.37 0.41 0.44 0.47 0.54 0.58 0.69 0.87 1.03 1.18
0.24 0.27 0.17 0.17 0.29 0.79 0.94 0.95 1.26 1.08 0.84 0.68 0.62 0.56 0.88 0.87 0.75 0.55 0.50 0.40 0.28 0.23 0.15 0.21 0.13 0.09 0.11 0.13 0.14 0.13 0.12 0.11 0.11 0.13 0.15 0.22 0.31 0.43 0.62 0.86 0.96 0.92 0.80
0.15 0.14 0.14 0.22 0.31 1.03 0.94 1.19 1.24 1.53 1.33 0.98 0.89 0.71 0.52 0.76 0.64 0.47 0.61 0.51 0.28 0.24 0.13 0.23 0.25 0.19 0.18 0.22 0.22 0.21 0.20 0.21 0.25 0.26 0.31 0.37 0.49 0.57 0.53 0.45 0.36 0.37 0.41
0.13 0.10 0.17 0.23 0.31 0.71 0.91 0.90 1.38 1.82 1.60 1.33 1.02 0.84 0.48 0.51 0.57 0.50 0.50 0.44 0.36 0.40 0.25 0.22 0.23 0.21 0.22 0.38 0.32 0.27 0.27 0.29 0.31 0.34 0.37 0.41 0.50 0.40 0.39 0.30 0.26 0.22 0.27
0.14 0.12 0.20 0.58 0.33 0.54 0.88 1.10 1.39 1.50 1.65 1.88 1.46 0.99 0.57 0.52 0.47 0.41 0.43 0.33 0.36 0.39 0.36 0.31 0.26 0.21 0.16 0.29 0.24 0.22 0.20 0.23 0.25 0.25 0.23 0.20 0.19 0.17 0.13 0.19 0.21 0.25 0.23
0.15 0.40 0.58 0.60 0.39 0.74 1.27 1.15 1.48 1.15 1.36 1.90 1.68 1.38 1.02 0.86 0.75 0.61 0.58 0.41 0.39 0.39 0.33 0.33 0.40 0.49 0.55 0.51 0.36 0.29 0.21 0.19 0.17 0.15 0.13 0.09 0.04 0.03 0.03 0.05 0.11 0.09 0.11
0.49 0.49 0.64 0.75 0.59 0.64 0.87 0.84 0.98 1.20 1.51 1.88 1.88 1.62 1.25 1.11 1.20 1.22 1.02 0.83 0.79 0.73 0.81 0.66 0.56 0.66 0.76 0.62 0.48 0.31 0.23 0.18 0.14 0.07 0.03 0.02 0.01 0.03 0.05 0.06 0.03 0.01 0.01
0.51 0.70 0.91 0.92 0.70 0.65 0.78 1.16 1.61 1.43 1.43 1.40 1.44 1.41 1.36 1.06 1.01 0.88 0.93 0.81 0.70 0.71 0.69 0.72 0.59 0.54 0.49 0.37 0.28 0.21 0.14 0.08 0.04 0.03 0.02 0.03 0.03 0.05 0.08 0.10 0.06 0.08 0.02
0.43 0.47 0.66 0.76 0.71 0.77 1.19 1.49 1.52 1.41 1.38 1.37 1.17 1.04 0.94 1.03 0.88 0.83 0.66 0.68 0.58 0.44 0.41 0.36 0.32 0.22 0.13 0.06 0.05 0.05 0.05 0.04 0.05 0.03 0.02 0.02 0.04 0.09 0.13 0.14 0.09 0.13 0.12
0.30 0.20 0.47 0.96 1.11 0.89 0.94 0.90 0.88 0.82 0.59 0.69 0.62 0.63 0.45 0.45 0.52 0.34 0.35 0.31 0.26 0.20 0.12 0.06 0.04 0.03 0.03 0.05 0.07 0.07 0.07 0.05 0.04 0.04 0.03 0.02 0.08 0.13 0.11 0.12 0.11 0.15 0.17
0.22 0.10 0.16 0.22 0.35 0.37 0.25 0.23 0.29 0.30 0.23 0.18 0.16 0.10 0.06 0.06 0.07 0.05 0.03 0.05 0.04 0.02 0.02 0.02 0.02 0.02 0.02 0.03 0.08 0.07 0.07 0.10 0.09 0.04 0.07 0.10 0.11 0.11 0.08 0.08 0.11 0.11 0.09
0.06 0.07 0.08 0.12 0.20 0.23 0.24 0.20 0.11 0.12 0.10 0.08 0.08 0.05 0.05 0.06 0.04 0.02 0.01 0.01 0.01 0.02 0.02 0.03 0.04 0.04 0.06 0.06 0.06 0.09 0.09 0.11 0.10 0.07 0.10 0.14 0.13 0.12 0.10 0.11 0.11 0.09 0.10
0.06 0.09 0.12 0.12 0.10 0.07 0.14 0.18 0.14 0.11 0.09 0.07 0.04 0.03 0.02 0.03 0.02 0.01 0.02 0.01 0.01 0.03 0.02 0.02 0.03 0.05 0.06 0.08 0.18 0.21 0.19 0.21 0.28 0.39 0.25 0.18 0.12 0.10 0.11 0.11 0.12 0.19 0.26
0.05 0.03 0.08 0.14 0.23 0.24 0.24 0.22 0.19 0.16 0.13 0.08 0.04 0.04 0.03 0.02 0.03 0.04 0.05 0.07 0.06 0.06 0.06 0.06 0.05 0.04 0.07 0.11 0.18 0.21 0.24 0.29 0.40 0.46 0.29 0.17 0.13 0.12 0.13 0.18 0.23 0.28 0.36

GFSMW_prec_precacc_204.txt.gz
Total_Precipitation_Accumulation
1.01 1.24 0.89 0.81 0.91 0.85 0.88 0.71 0.61 0.72 0.95 1.11 0.99 0.99 1.26 1.72 1.88 1.43 1.19 1.13 1.06 1.07 1.00 0.83 0.69 0.52 0.34 0.25 0.26 0.32 0.50 0.70 0.66 0.59 0.41 0.26 0.17 0.16 0.17 0.18 0.17 0.16 0.12
0.89 1.29 1.70 0.90 0.88 1.50 1.77 1.37 1.11 1.01 0.94 1.07 1.00 0.90 1.00 1.20 1.63 1.90 1.50 1.43 1.38 1.29 1.04 0.87 0.88 0.75 0.68 0.60 0.60 0.52 0.52 0.54 0.70 0.69 0.53 0.41 0.30 0.24 0.12 0.09 0.11 0.12 0.14
0.60 1.05 1.84 1.39 1.25 1.72 1.87 1.62 1.51 1.54 1.46 1.48 1.88 1.58 1.60 1.48 1.70 2.11 1.91 1.78 1.54 1.46 1.65 1.94 1.62 1.11 1.14 1.25 1.29 1.35 1.31 1.09 0.85 0.74 0.77 0.52 0.32 0.19 0.19 0.12 0.09 0.09 0.10
0.38 0.60 0.95 1.32 1.45 1.02 1.03 1.53 2.55 2.98 2.12 1.91 2.77 3.41 3.11 2.94 2.71 2.93 2.66 2.11 1.83 1.72 1.88 2.20 2.78 3.24 2.79 1.96 1.68 1.56 1.40 1.47 1.31 1.27 0.98 0.83 0.60 0.42 0.23 0.12 0.10 0.07 0.06
0.34 0.35 0.56 0.83 0.79 0.73 0.77 0.94 1.48 2.35 2.43 2.47 2.68 3.18 3.05 2.43 2.15 2.20 2.78 2.81 2.55 2.09 1.88 1.92 2.01 2.00 2.19 2.65 2.42 1.96 1.85 1.71 1.44 1.20 0.97 0.85 0.80 0.81 0.71 0.38 0.20 0.16 0.11
0.16 0.32 0.31 0.46 0.55 0.66 0.78 0.69 1.00 1.46 2.17 2.43 2.43 2.64 2.88 3.15 2.69 2.19 2.40 2.27 1.89 1.85 1.74 1.56 1.46 1.46 1.47 1.57 1.93 1.96 1.69 1.58 1.61 1.56 1.39 1.17 1.09 0.93 1.03 0.94 0.59 0.51 0.37
0.30 0.37 0.59 0.56 0.66 0.78 0.60 0.61 0.89 1.03 1.50 1.69 2.08 2.20 1.78 2.03 2.12 1.97 1.93 2.04 2.00 1.76 1.68 1.56 1.58 1.48 1.45 1.47 1.56 1.72 1.66 1.48 1.33 1.27 1.31 1.41 1.43 1.40 1.43 1.36 1.00 0.68 0.44
0.55 0.51 0.81 1.02 1.05 0.88 0.85 0.56 0.82 0.91 0.90 0.91 0.97 1.35 1.58 1.94 1.87 1.68 1.58 1.55 1.45 1.56 1.90 1.82 1.78 1.84 1.78 1.74 1.73 1.78 1.83 1.74 1.66 1.66 1.58 1.51 1.47 1.59 1.75 1.86 1.86 1.72 1.12
0.91 0.79 0.86 1.20 1.12 0.89 0.99 0.92 0.88 0.98 0.81 0.83 0.53 0.48 0.57 0.70 0.85 0.90 0.90 1.02 1.29 1.22 1.34 1.46 1.38 1.37 1.38 1.35 1.40 1.40 1.38 1.52 1.58 1.50 1.42 1.38 1.25 1.30 1.40 1.57 1.88 2.40 2.23
1.11 0.97 0.90 0.92 0.86 0.72 0.88 0.94 0.81 0.61 0.57 0.66 0.59 0.25 0.28 0.32 0.39 0.31 0.28 0.30 0.45 0.61 0.72 0.84 0.89 0.95 0.98 1.13 1.24 1.24 1.30 1.42 1.47 1.50 1.61 1.58 1.50 1.45 1.34 1.29 1.40 1.59 1.96
0.84 0.76 0.69 0.63 0.58 0.42 0.60 0.85 0.73 0.61 0.51 0.56 0.72 0.45 0.34 0.32 0.34 0.28 0.13 0.14 0.13 0.16 0.18 0.18 0.24 0.31 0.32 0.46 0.68 0.86 1.01 1.21 1.40 1.73 1.97 2.13 2.21 2.31 2.26 2.31 2.45 2.58 2.69
0.56 0.54 0.56 0.53 0.34 0.47 0.71 1.22 1.10 0.76 0.50 0.51 0.58 0.73 0.57 0.47 0.41 0.39 0.21 0.17 0.19 0.20 0.18 0.16 0.16 0.19 0.19 0.18 0.19 0.25 0.30 0.36 0.47 0.64 0.86 0.95 1.10 1.29 1.45 1.66 1.82 2.16 2.62
0.23 0.31 0.45 0.76 0.26 0.49 0.79 1.22 1.15 0.77 0.53 0.58 0.52 0.68 0.89 0.71 0.62 0.45 0.37 0.26 0.29 0.37 0.51 0.23 0.14 0.15 0.15 0.12 0.14 0.16 0.23 0.29 0.42 0.48 0.49 0.53 0.54 0.59 0.60 0.70 0.87 1.03 1.18
0.24 0.27 0.17 0.17 0.29 0.79 0.94 0.95 1.26 1.08 0.84 0.68 0.62 0.57 0.89 0.87 0.75 0.57 0.55 0.46 0.40 0.39 0.50 0.47 0.16 0.12 0.14 0.16 0.16 0.14 0.14 0.17 0.20 0.25 0.23 0.24 0.32 0.44 0.63 0.86 0.96 0.92 0.80
0.15 0.14 0.14 0.22 0.31 1.03 0.95 1.19 1.24 1.53 1.33 0.98 0.89 0.74 0.53 0.77 0.64 0.47 0.66 0.56 0.39 0.43 0.31 0.41 0.30 0.24 0.22 0.24 0.23 0.21 0.21 0.23 0.29 0.29 0.32 0.37 0.49 0.57 0.53 0.45 0.36 0.37 0.41
0.13 0.10 0.17 0.23 0.31 0.71 0.91 0.90 1.38 1.82 1.61 1.34 1.04 0.87 0.48 0.54 0.62 0.51 0.54 0.50 0.48 0.60 0.39 0.45 0.35 0.27 0.28 0.40 0.33 0.27 0.27 0.29 0.32 0.36 0.38 0.42 0.50 0.40 0.39 0.30 0.26 0.22 0.27
0.14 0.12 0.20 0.59 0.33 0.54 0.88 1.10 1.39 1.50 1.68 1.91 1.49 1.04 0.57 0.53 0.48 0.41 0.45 0.38 0.44 0.58 0.59 0.51 0.37 0.24 0.20 0.32 0.24 0.22 0.20 0.23 0.26 0.26 0.23 0.20 0.19 0.17 0.13 0.19 0.21 0.25 0.23
0.15 0.40 0.59 0.60 0.39 0.74 1.27 1.15 1.48 1.15 1.38 1.95 1.70 1.40 1.04 0.87 0.76 0.62 0.60 0.44 0.46 0.50 0.53 0.50 0.55 0.56 0.59 0.52 0.37 0.29 0.21 0.19 0.17 0.15 0.13 0.09 0.04 0.03 0.03 0.05 0.11 0.09 0.11
0.49 0.49 0.64 0.75 0.59 0.64 0.87 0.84 0.98 1.20 1.53 1.90 1.89 1.62 1.26 1.15 1.21 1.23 1.04 0.84 0.81 0.80 0.88 0.74 0.62 0.71 0.84 0.62 0.48 0.31 0.23 0.18 0.14 0.07 0.03 0.02 0.01 0.03 0.05 0.06 0.03 0.01 0.01
0.51 0.70 0.91 0.92 0.70 0.65 0.78 1.16 1.61 1.43 1.43 1.40 1.45 1.43 1.37 1.11 1.02 0.88 0.93 0.81 0.72 0.73 0.73 0.73 0.61 0.54 0.51 0.37 0.28 0.21 0.14 0.08 0.04 0.03 0.02 0.03 0.03 0.05 0.08 0.10 0.06 0.08 0.02
0.43 0.47 0.66 0.76 0.71 0.78 1.19 1.49 1.52 1.41 1.38 1.38 1.18 1.05 0.95 1.05 0.89 0.83 0.66 0.68 0.58 0.46 0.41 0.36 0.32 0.22 0.13 0.06 0.05 0.05 0.05 0.04 0.05 0.03 0.02 0.02 0.04 0.10 0.13 0.14 0.09 0.13 0.12
0.30 0.20 0.47 0.97 1.12 0.90 0.94 0.90 0.88 0.82 0.59 0.69 0.63 0.63 0.46 0.46 0.53 0.34 0.35 0.31 0.27 0.20 0.12 0.06 0.04 0.03 0.03 0.05 0.07 0.07 0.07 0.05 0.04 0.04 0.03 0.02 0.08 0.13 0.11 0.12 0.11 0.15 0.17
0.22 0.10 0.17 0.22 0.35 0.37 0.25 0.23 0.29 0.30 0.23 0.19 0.16 0.11 0.06 0.06 0.08 0.07 0.04 0.06 0.04 0.02 0.02 0.02 0.02 0.02 0.02 0.03 0.08 0.07 0.07 0.10 0.09 0.04 0.07 0.10 0.11 0.11 0.08 0.08 0.11 0.11 0.09
0.06 0.07 0.09 0.13 0.20 0.23 0.24 0.20 0.11 0.12 0.10 0.08 0.08 0.05 0.06 0.08 0.05 0.03 0.02 0.01 0.01 0.02 0.02 0.03 0.04 0.04 0.06 0.06 0.06 0.09 0.09 0.11 0.10 0.07 0.10 0.14 0.13 0.12 0.10 0.11 0.11 0.09 0.11
0.06 0.09 0.13 0.14 0.11 0.08 0.14 0.18 0.14 0.11 0.09 0.07 0.04 0.04 0.03 0.03 0.02 0.01 0.02 0.01 0.01 0.03 0.02 0.02 0.03 0.05 0.06 0.08 0.18 0.21 0.19 0.21 0.28 0.39 0.25 0.18 0.12 0.10 0.11 0.11 0.12 0.19 0.26
0.05 0.03 0.09 0.16 0.24 0.25 0.25 0.22 0.19 0.16 0.13 0.08 0.04 0.04 0.03 0.02 0.03 0.04 0.05 0.07 0.06 0.06 0.06 0.06 0.05 0.04 0.07 0.11 0.18 0.21 0.24 0.29 0.40 0.46 0.29 0.17 0.13 0.12 0.13 0.18 0.23 0.28 0.36

GFSMW_prec_precacc_210.txt.gz
Total_Precipitation_Accumulation
1.01 1.24 0.89 0.81 0.91 0.85 0.88 0.71 0.61 0.72 0.95 1.11 0.99 0.99 1.26 1.72 1.88 1.43 1.19 1.13 1.06 1.07 1.00 0.83 0.69 0.52 0.34 0.26 0.26 0.33 0.52 0.73 0.70 0.61 0.45 0.31 0.21 0.22 0.26 0.25 0.24 0.20 0.17
0.89 1.29 1.70 0.90 0.88 1.50 1.77 1.37 1.11 1.01 0.94 1.07 1.00 0.90 1.00 1.20 1.63 1.90 1.50 1.43 1.38 1.29 1.05 0.89 0.88 0.75 0.68 0.60 0.60 0.53 0.55 0.59 0.76 0.74 0.58 0.47 0.38 0.30 0.15 0.11 0.13 0.14 0.15
0.60 1.05 1.84 1.39 1.25 1.72 1.87 1.62 1.51 1.54 1.46 1.48 1.88 1.58 1.60 1.48 1.70 2.11 1.91 1.78 1.54 1.46 1.65 1.97 1.65 1.14 1.15 1.26 1.30 1.35 1.33 1.12 0.90 0.78 0.83 0.59 0.39 0.28 0.28 0.15 0.12 0.10 0.11
0.38 0.60 0.95 1.32 1.45 1.02 1.03 1.53 2.55 2.98 2.12 1.91 2.77 3.41 3.11 2.94 2.71 2.93 2.66 2.11 1.84 1.72 1.88 2.22 2.82 3.28 2.83 1.99 1.69 1.56 1.41 1.49 1.35 1.32 1.04 0.86 0.62 0.45 0.30 0.18 0.17 0.16 0.12
0.34 0.35 0.56 0.83 0.79 0.73 0.77 0.94 1.48 2.35 2.43 2.47 2.68 3.18 3.05 2.43 2.15 2.20 2.78 2.81 2.55 2.09 1.89 1.93 2.04 2.04 2.23 2.69 2.44 1.98 1.87 1.74 1.48 1.24 1.01 0.91 0.86 0.86 0.74 0.41 0.22 0.18 0.16
0.16 0.32 0.31 0.46 0.55 0.66 0.78 0.69 1.00 1.46 2.17 2.43 2.43 2.64 2.88 3.15 2.70 2.19 2.40 2.27 1.89 1.85 1.74 1.58 1.49 1.50 1.53 1.62 1.98 1.98 1.70 1.60 1.64 1.59 1.49 1.23 1.14 0.96 1.07 0.98 0.63 0.55 0.39
0.30 0.37 0.59 0.56 0.66 0.78 0.60 0.61 0.89 1.03 1.50 1.69 2.08 2.20 1.78 2.03 2.12 1.97 1.93 2.04 2.00 1.76 1.68 1.56 1.60 1.51 1.52 1.56 1.64 1.76 1.68 1.49 1.35 1.30 1.35 1.53 1.54 1.46 1.47 1.42 1.04 0.75 0.50
0.55 0.51 0.81 1.02 1.05 0.88 0.85 0.56 0.82 0.91 0.90 0.91 0.97 1.35 1.58 1.94 1.87 1.68 1.58 1.55 1.45 1.56 1.90 1.82 1.79 1.87 1.85 1.83 1.85 1.87 1.88 1.77 1.68 1.68 1.62 1.56 1.58 1.73 1.86 1.93 1.94 1.79 1.15
0.91 0.79 0.86 1.20 1.12 0.89 0.99 0.92 0.88 0.98 0.81 0.84 0.54 0.48 0.57 0.70 0.85 0.90 0.91 1.02 1.29 1.22 1.34 1.47 1.39 1.41 1.44 1.41 1.49 1.50 1.45 1.58 1.64 1.53 1.44 1.44 1.33 1.35 1.46 1.64 1.99 2.52 2.32
1.11 0.97 0.90 0.92 0.86 0.72 0.88 0.94 0.81 0.61 0.57 0.66 0.59 0.25 0.28 0.32 0.39 0.31 0.28 0.30 0.45 0.61 0.72 0.85 0.91 0.98 1.06 1.21 1.31 1.32 1.39 1.50 1.55 1.57 1.63 1.61 1.58 1.57 1.42 1.34 1.45 1.67 2.04
0.84 0.76 0.69 0.63 0.58 0.42 0.60 0.85 0.73 0.61 0.51 0.56 0.72 0.45 0.34 0.32 0.34 0.28 0.13 0.14 0.13 0.16 0.18 0.18 0.27 0.35 0.40 0.54 0.76 0.91 1.09 1.27 1.49 1.79 2.04 2.19 2.27 2.40 2.38 2.46 2.56 2.64 2.71
0.56 0.54 0.56 0.53 0.34 0.47 0.71 1.22 1.10 0.76 0.50 0.51 0.58 0.73 0.57 0.47 0.41 0.39 0.21 0.17 0.19 0.20 0.19 0.18 0.19 0.24 0.27 0.27 0.26 0.32 0.38 0.46 0.56 0.76 0.99 1.10 1.25 1.49 1.58 1.75 1.91 2.28 2.70
0.23 0.31 0.45 0.76 0.26 0.49 0.79 1.22 1.15 0.77 0.53 0.58 0.52 0.68 0.90 0.72 0.62 0.45 0.37 0.26 0.29 0.37 0.56 0.38 0.31 0.26 0.23 0.19 0.20 0.24 0.34 0.45 0.53 0.60 0.66 0.77 0.81 0.82 0.85 0.90 1.01 1.13 1.26
0.24 0.27 0.17 0.17 0.29 0.79 0.94 0.95 1.26 1.08 0.84 0.69 0.63 0.59 0.92 0.88 0.75 0.57 0.55 0.46 0.41 0.40 0.56 0.92 0.51 0.42 0.39 0.33 0.25 0.25 0.24 0.30 0.44 0.43 0.46 0.46 0.59 0.73 0.81 0.99 1.13 1.07 0.91
0.15 0.14 0.14 0.22 0.31 1.03 0.95 1.19 1.24 1.53 1.33 1.00 0.92 0.78 0.53 0.77 0.64 0.48 0.66 0.56 0.41 0.48 0.41 0.49 0.59 0.52 0.44 0.57 0.40 0.33 0.32 0.30 0.47 0.72 0.55 0.71 0.73 0.83 0.71 0.53 0.42 0.41 0.43
0.13 0.10 0.17 0.23 0.31 0.71 0.91 0.90 1.38 1.82 1.61 1.35 1.06 0.89 0.49 0.54 0.62 0.51 0.55 0.51 0.51 0.67 0.49 0.51 0.45 0.40 0.45 0.74 0.62 0.41 0.33 0.31 0.42 0.61 0.66 0.59 0.75 0.58 0.48 0.35 0.29 0.24 0.27
0.14 0.12 0.20 0.59 0.33 0.54 0.88 1.10 1.39 1.50 1.69 1.92 1.51 1.05 0.57 0.53 0.48 0.42 0.46 0.39 0.45 0.62 0.65 0.58 0.67 0.54 0.56 0.73 0.75 0.51 0.24 0.23 0.29 0.33 0.28 0.24 0.23 0.28 0.24 0.24 0.22 0.25 0.23
0.15 0.40 0.59 0.60 0.39 0.74 1.27 1.15 1.48 1.15 1.39 1.96 1.71 1.40 1.04 0.87 0.76 0.62 0.61 0.44 0.47 0.55 0.60 0.60 0.79 0.84 0.98 0.88 0.84 0.50 0.23 0.19 0.17 0.17 0.13 0.09 0.06 0.04 0.05 0.05 0.11 0.09 0.11
0.49 0.49 0.64 0.75 0.59 0.64 0.87 0.84 0.98 1.20 1.53 1.91 1.90 1.62 1.26 1.16 1.21 1.23 1.04 0.84 0.82 0.84 0.92 0.83 0.81 0.85 1.04 0.85 0.86 0.42 0.23 0.18 0.14 0.07 0.03 0.02 0.01 0.03 0.05 0.06 0.03 0.01 0.01
0.51 0.70 0.91 0.92 0.70 0.65 0.78 1.16 1.61 1.43 1.43 1.41 1.46 1.44 1.37 1.12 1.02 0.88 0.94 0.82 0.73 0.77 0.81 0.79 0.73 0.66 0.63 0.52 0.49 0.28 0.14 0.08 0.04 0.03 0.02 0.03 0.03 0.05 0.08 0.10 0.06 0.08 0.02
0.43 0.47 0.66 0.76 0.71 0.78 1.19 1.49 1.52 1.41 1.38 1.39 1.20 1.06 0.95 1.05 0.89 0.83 0.67 0.69 0.59 0.47 0.43 0.39 0.37 0.26 0.19 0.10 0.06 0.06 0.05 0.04 0.05 0.03 0.02 0.02 0.04 0.10 0.13 0.14 0.09 0.13 0.12
0.30 0.20 0.47 0.97 1.12 0.90 0.95 0.90 0.88 0.82 0.60 0.70 0.65 0.64 0.46 0.46 0.53 0.34 0.35 0.32 0.27 0.20 0.12 0.07 0.04 0.03 0.03 0.05 0.07 0.07 0.07 0.05 0.04 0.04 0.03 0.02 0.08 0.13 0.11 0.12 0.11 0.15 0.17
0.22 0.10 0.17 0.22 0.35 0.38 0.26 0.23 0.29 0.30 0.24 0.19 0.18 0.12 0.07 0.07 0.09 0.07 0.05 0.07 0.04 0.02 0.02 0.02 0.02 0.02 0.02 0.03 0.08 0.07 0.07 0.10 0.09 0.04 0.07 0.10 0.11 0.11 0.08 0.08 0.11 0.11 0.09
0.06 0.07 0.09 0.13 0.21 0.25 0.26 0.21 0.11 0.12 0.11 0.08 0.08 0.07 0.07 0.09 0.06 0.03 0.02 0.01 0.01 0.02 0.02 0.03 0.04 0.04 0.06 0.06 0.06 0.09 0.09 0.11 0.10 0.07 0.10 0.14 0.13 0.12 0.10 0.11 0.11 0.09 0.11
0.06 0.09 0.13 0.14 0.13 0.10 0.18 0.20 0.14 0.11 0.10 0.08 0.05 0.04 0.03 0.05 0.02 0.01 0.02 0.01 0.01 0.03 0.02 0.02 0.03 0.05 0.06 0.08 0.18 0.21 0.19 0.21 0.28 0.39 0.25 0.18 0.12 0.10 0.11 0.11 0.12 0.19 0.26
0.05 0.03 0.09 0.17 0.26 0.29 0.30 0.26 0.21 0.16 0.13 0.09 0.04 0.04 0.03 0.02 0.03 0.04 0.05 0.07 0.06 0.06 0.06 0.06 0.05 0.04 0.07 0.11 0.18 0.21 0.24 0.29 0.40 0.46 0.29 0.17 0.13 0.12 0.13 0.18 0.23 0.28 0.36

GFSMW_prec_precacc_213.txt.gz
Total_Precipitation_Accumulation
1.01 1.24 0.89 0.81 0.91 0.85 0.88 0.71 0.61 0.72 0.95 1.11 0.99 0.99 1.26 1.72 1.88 1.43 1.19 1.13 1.06 1.07 1.00 0.83 0.69 0.52 0.34 0.26 0.26 0.33 0.52 0.74 0.70 0.63 0.47 0.32 0.22 0.24 0.29 0.30 0.31 0.27 0.21
0.89 1.29 1.70 0.90 0.88 1.50 1.77 1.37 1.11 1.01 0.94 1.07 1.00 0.90 1.00 1.20 1.63 1.90 1.50 1.43 1.38 1.29 1.05 0.89 0.88 0.75 0.68 0.60 0.60 0.53 0.55 0.59 0.76 0.75 0.60 0.50 0.42 0.35 0.20 0.15 0.17 0.19 0.19
0.60 1.05 1.84 1.39 1.25 1.72 1.87 1.62 1.51 1.54 1.46 1.48 1.88 1.58 1.60 1.48 1.70 2.11 1.91 1.78 1.54 1.46 1.65 1.97 1.65 1.14 1.16 1.26 1.30 1.35 1.33 1.13 0.90 0.78 0.84 0.60 0.42 0.32 0.36 0.25 0.18 0.13 0.14
0.38 0.60 0.95 1.32 1.45 1.02 1.03 1.53 2.55 2.98 2.12 1.91 2.77 3.41 3.11 2.94 2.71 2.93 2.66 2.11 1.84 1.72 1.88 2.22 2.82 3.28 2.84 2.01 1.70 1.56 1.42 1.51 1.37 1.32 1.05 0.88 0.62 0.46 0.33 0.24 0.25 0.22 0.16
0.34 0.35 0.56 0.83 0.79 0.73 0.77 0.94 1.48 2.35 2.43 2.47 2.68 3.18 3.05 2.43 2.15 2.20 2.78 2.81 2.55 2.09 1.89 1.93 2.04 2.04 2.23 2.70 2.46 1.99 1.87 1.75 1.50 1.25 1.02 0.92 0.87 0.87 0.74 0.42 0.26 0.26 0.25
0.16 0.32 0.31 0.46 0.55 0.66 0.78 0.69 1.00 1.46 2.17 2.43 2.43 2.64 2.88 3.15 2.70 2.19 2.40 2.27 1.89 1.85 1.74 1.58 1.49 1.50 1.53 1.63 1.99 2.01 1.72 1.62 1.65 1.61 1.51 1.24 1.14 0.96 1.08 0.99 0.65 0.57 0.43
0.30 0.37 0.59 0.56 0.66 0.78 0.60 0.61 0.89 1.03 1.50 1.69 2.08 2.20 1.78 2.03 2.12 1.97 1.93 2.04 2.00 1.76 1.68 1.56 1.60 1.51 1.52 1.56 1.64 1.77 1.69 1.51 1.37 1.31 1.36 1.54 1.55 1.46 1.48 1.43 1.08 0.78 0.53
0.55 0.51 0.81 1.02 1.05 0.88 0.85 0.56 0.82 0.91 0.90 0.91 0.97 1.35 1.58 1.94 1.87 1.68 1.58 1.55 1.45 1.56 1.90 1.82 1.79 1.87 1.85 1.83 1.85 1.87 1.88 1.78 1.70 1.70 1.64 1.57 1.59 1.74 1.88 1.94 1.96 1.83 1.18
0.91 0.79 0.86 1.20 1.12 0.89 0.99 0.92 0.88 0.98 0.81 0.84 0.54 0.48 0.57 0.70 0.85 0.90 0.91 1.02 1.29 1.22 1.34 1.47 1.39 1.41 1.44 1.41 1.49 1.50 1.45 1.59 1.65 1.54 1.45 1.45 1.33 1.37 1.49 1.73 2.09 2.63 2.43
1.11 0.97 0.90 0.92 0.86 0.72 0.88 0.94 0.81 0.61 0.57 0.66 0.59 0.25 0.28 0.32 0.39 0.31 0.28 0.30 0.45 0.61 0.72 0.85 0.91 0.98 1.06 1.21 1.31 1.32 1.39 1.52 1.57 1.60 1.67 1.63 1.59 1.58 1.45 1.40 1.54 1.73 2.11
0.84 0.76 0.69 0.63 0.58 0.42 0.60 0.85 0.73 0.61 0.51 0.56 0.72 0.45 0.34 0.32 0.34 0.28 0.13 0.14 0.13 0.16 0.18 0.18 0.27 0.35 0.40 0.54 0.76 0.91 1.10 1.29 1.51 1.82 2.08 2.22 2.28 2.40 2.39 2.49 2.65 2.71 2.77
0.56 0.54 0.56 0.53 0.34 0.47 0.71 1.22 1.10 0.76 0.50 0.51 0.58 0.73 0.57 0.47 0.41 0.39 0.21 0.17 0.19 0.20 0.19 0.18 0.19 0.24 0.27 0.27 0.26 0.32 0.39 0.47 0.58 0.79 1.04 1.15 1.28 1.50 1.59 1.77 1.96 2.31 2.75
0.23 0.31 0.45 0.76 0.26 0.49 0.79 1.22 1.15 0.77 0.53 0.58 0.52 0.68 0.90 0.72 0.62 0.45 0.37 0.26 0.29 0.37 0.56 0.38 0.31 0.26 0.23 0.19 0.21 0.25 0.36 0.47 0.56 0.63 0.69 0.80 0.86 0.83 0.86 0.91 1.03 1.17 1.31
0.24 0.27 0.17 0.17 0.29 0.79 0.94 0.95 1.26 1.08 0.84 0.69 0.63 0.59 0.92 0.88 0.75 0.57 0.55 0.46 0.41 0.40 0.56 0.93 0.51 0.42 0.39 0.34 0.26 0.26 0.26 0.32 0.46 0.46 0.50 0.48 0.62 0.78 0.85 1.06 1.21 1.13 1.01
0.15 0.14 0.14 0.22 0.31 1.03 0.95 1.19 1.24 1.53 1.33 1.00 0.92 0.78 0.54 0.77 0.64 0.48 0.66 0.56 0.41 0.48 0.43 0.50 0.60 0.53 0.45 0.61 0.48 0.36 0.38 0.32 0.50 0.81 0.70 0.81 0.83 0.98 0.97 0.73 0.55 0.59 0.60
0.13 0.10 0.17 0.23 0.31 0.71 0.91 0.90 1.38 1.82 1.61 1.35 1.06 0.90 0.49 0.54 0.62 0.51 0.55 0.51 0.51 0.68 0.49 0.52 0.45 0.42 0.49 0.87 0.81 0.52 0.49 0.43 0.46 0.76 0.90 0.77 0.94 0.74 0.72 0.64 0.52 0.38 0.36
0.14 0.12 0.20 0.59 0.33 0.54 0.88 1.10 1.39 1.50 1.69 1.92 1.52 1.05 0.57 0.53 0.48 0.42 0.46 0.39 0.45 0.62 0.65 0.59 0.68 0.55 0.59 0.83 0.87 0.68 0.38 0.33 0.33 0.43 0.43 0.35 0.36 0.42 0.36 0.40 0.35 0.30 0.25
0.15 0.40 0.59 0.60 0.39 0.74 1.27 1.15 1.48 1.15 1.39 1.96 1.71 1.40 1.04 0.87 0.76 0.62 0.61 0.44 0.47 0.55 0.60 0.60 0.80 0.88 1.04 0.93 0.92 0.67 0.36 0.23 0.18 0.25 0.19 0.12 0.08 0.08 0.10 0.14 0.15 0.09 0.11
0.49 0.49 0.64 0.75 0.59 0.64 0.87 0.84 0.98 1.20 1.53 1.91 1.90 1.62 1.26 1.16 1.21 1.23 1.04 0.85 0.83 0.84 0.93 0.83 0.82 0.86 1.08 0.91 0.99 0.52 0.33 0.20 0.14 0.08 0.03 0.02 0.01 0.04 0.05 0.06 0.03 0.01 0.01
0.51 0.70 0.91 0.92 0.70 0.65 0.78 1.16 1.61 1.43 1.43 1.41 1.46 1.44 1.37 1.12 1.02 0.88 0.94 0.82 0.74 0.77 0.82 0.79 0.74 0.68 0.65 0.53 0.55 0.35 0.15 0.08 0.04 0.03 0.03 0.03 0.03 0.05 0.08 0.10 0.06 0.08 0.02
0.43 0.47 0.66 0.76 0.71 0.78 1.20 1.49 1.52 1.41 1.38 1.39 1.21 1.07 0.95 1.05 0.89 0.83 0.67 0.69 0.59 0.47 0.44 0.41 0.38 0.27 0.19 0.11 0.09 0.06 0.05 0.04 0.05 0.03 0.02 0.02 0.04 0.10 0.13 0.14 0.09 0.13 0.12
0.30 0.20 0.47 0.97 1.12 0.90 0.95 0.90 0.88 0.82 0.60 0.70 0.65 0.65 0.46 0.46 0.53 0.34 0.35 0.32 0.27 0.20 0.13 0.07 0.05 0.03 0.03 0.05 0.07 0.07 0.07 0.05 0.04 0.04 0.03 0.02 0.08 0.13 0.11 0.12 0.11 0.15 0.17
0.22 0.10 0.17 0.22 0.35 0.38 0.27 0.25 0.29 0.30 0.24 0.19 0.18 0.12 0.07 0.07 0.09 0.07 0.05 0.07 0.04 0.02 0.02 0.02 0.02 0.02 0.02 0.03 0.08 0.07 0.07 0.10 0.09 0.04 0.07 0.10 0.11 0.11 0.08 0.08 0.11 0.11 0.09
0.06 0.07 0.09 0.13 0.21 0.25 0.28 0.24 0.12 0.12 0.11 0.08 0.08 0.07 0.07 0.10 0.06 0.03 0.02 0.01 0.01 0.02 0.02 0.03 0.04 0.04 0.06 0.06 0.06 0.09 0.09 0.11 0.10 0.07 0.10 0.14 0.13 0.12 0.10 0.11 0.11 0.09 0.11
0.06 0.09 0.13 0.14 0.13 0.10 0.19 0.23 0.17 0.12 0.10 0.08 0.05 0.04 0.03 0.05 0.02 0.01 0.02 0.01 0.01 0.03 0.02 0.02 0.03 0.05 0.06 0.08 0.18 0.21 0.19 0.21 0.28 0.39 0.25 0.18 0.12 0.10 0.11 0.11 0.12 0.19 0.26
0.05 0.03 0.09 0.17 0.26 0.29 0.31 0.28 0.25 0.19 0.14 0.09 0.04 0.04 0.03 0.02 0.03 0.04 0.05 0.07 0.06 0.06 0.06 0.06 0.05 0.04 0.07 0.11 0.18 0.21 0.24 0.29 0.40 0.46 0.29 0.17 0.13 0.12 0.13 0.18 0.23 0.28 0.36